CPA238 EGLL-VHHH

Flight info

Callsign CPA238
Flight time 11h 39m
Altitude 33000
Route DET L6 DVR UL9 KONAN DCT KOK DCT DENOX DCT MATUG DCT AMASI DCT BOMBI DCT TENLO DCT DEXIT DCT BEGLA DCT BALUX DCT BKS DCT EVRIK/N0487F350 DCT EMPOS DCT IRLOX DCT OPT DCT LUGEB DCT UDROS DCT BAMUP DCT ROLIN DCT FOQUS DCT LAGAS DCT DISKA M737 VERCA M747 SUBUT T916 BALUN/K0913F350 T916 KUNAS/K0907F370 N193 SR L163 TISIB L141 KAMUD/K0898S1130 W186 SADAN Y1 DUMIN/K0896S1190 Y1 OMBON W245 OVRAL B330 KWE W181 DUDIT A599 POU R473 SIERA
Aircraft A35K/H-SDE2E3GHIJ3J4J5LM1ORWXY/LB1D1

Departure

Time 2026-05-07 17:32
Airport London Heathrow Airport (EGLL)

Arrival

Time 2026-05-08 05:11
Airport Hong Kong International Airport (VHHH)
Time Latitude Longitude Altitude Speed Heading
2026-05-07 16:46 51.46840 -0.45445 94 ft 0 kts 359°
2026-05-07 17:16 51.46831 -0.45445 94 ft 4 kts 359°
2026-05-07 17:16 51.46803 -0.45444 92 ft 4 kts 359°
2026-05-07 17:16 51.46781 -0.45444 92 ft 3 kts 359°
2026-05-07 17:16 51.46758 -0.45435 93 ft 4 kts 310°
2026-05-07 17:17 51.46750 -0.45401 91 ft 3 kts 269°
2026-05-07 17:17 51.46750 -0.45358 91 ft 4 kts 269°
2026-05-07 17:17 51.46750 -0.45345 91 ft 0 kts 269°
2026-05-07 17:22 51.46750 -0.45346 91 ft 1 kts 269°
2026-05-07 17:22 51.46750 -0.45388 91 ft 7 kts 269°
2026-05-07 17:23 51.46749 -0.45473 93 ft 9 kts 267°
2026-05-07 17:23 51.46715 -0.45554 95 ft 9 kts 205°
2026-05-07 17:23 51.46669 -0.45625 96 ft 9 kts 250°
2026-05-07 17:23 51.46661 -0.45737 92 ft 11 kts 267°
2026-05-07 17:24 51.46661 -0.45864 93 ft 12 kts 270°
2026-05-07 17:24 51.46660 -0.46003 92 ft 13 kts 269°
2026-05-07 17:24 51.46660 -0.46164 95 ft 16 kts 269°
2026-05-07 17:24 51.46659 -0.46345 95 ft 17 kts 270°
2026-05-07 17:25 51.46659 -0.46541 95 ft 18 kts 270°
2026-05-07 17:25 51.46658 -0.46744 96 ft 19 kts 269°
2026-05-07 17:25 51.46657 -0.46955 95 ft 19 kts 270°
2026-05-07 17:25 51.46656 -0.47182 95 ft 21 kts 270°
2026-05-07 17:26 51.46655 -0.47423 95 ft 22 kts 270°
2026-05-07 17:26 51.46655 -0.47660 94 ft 21 kts 270°
2026-05-07 17:26 51.46654 -0.47895 92 ft 21 kts 269°
2026-05-07 17:26 51.46654 -0.48042 92 ft 8 kts 270°
2026-05-07 17:27 51.46654 -0.48066 95 ft 0 kts 270°
2026-05-07 17:28 51.46654 -0.48078 92 ft 4 kts 270°
2026-05-07 17:28 51.46654 -0.48173 94 ft 13 kts 270°
2026-05-07 17:28 51.46653 -0.48354 92 ft 19 kts 269°
2026-05-07 17:28 51.46652 -0.48569 94 ft 14 kts 270°
2026-05-07 17:29 51.46649 -0.48693 93 ft 8 kts 258°
2026-05-07 17:29 51.46614 -0.48750 95 ft 2 kts 210°
2026-05-07 17:29 51.46613 -0.48750 95 ft 0 kts 210°
2026-05-07 17:30 51.46596 -0.48764 96 ft 8 kts 204°
2026-05-07 17:30 51.46540 -0.48781 95 ft 9 kts 175°
2026-05-07 17:30 51.46489 -0.48721 96 ft 10 kts 118°
2026-05-07 17:31 51.46480 -0.48614 95 ft 4 kts 91°
2026-05-07 17:31 51.46480 -0.48612 94 ft 0 kts 91°
2026-05-07 17:31 51.46479 -0.48404 92 ft 54 kts 90°
2026-05-07 17:31 51.46481 -0.47387 92 ft 127 kts 90°
2026-05-07 17:32 51.46490 -0.45631 129 ft 184 kts 92°
2026-05-07 17:32 51.46495 -0.43592 1020 ft 181 kts 93°
2026-05-07 17:32 51.46206 -0.41602 1676 ft 190 kts 115°
2026-05-07 17:32 51.45614 -0.39592 1940 ft 210 kts 117°
2026-05-07 17:33 51.44952 -0.37376 2205 ft 231 kts 117°
2026-05-07 17:33 51.44280 -0.34900 2485 ft 251 kts 112°
2026-05-07 17:33 51.43656 -0.32251 3095 ft 255 kts 111°
2026-05-07 17:33 51.43052 -0.29557 3762 ft 258 kts 109°
2026-05-07 17:34 51.42565 -0.26779 4404 ft 260 kts 103°
2026-05-07 17:34 51.42169 -0.23969 5039 ft 262 kts 102°
2026-05-07 17:34 51.41781 -0.21104 5699 ft 264 kts 102°
2026-05-07 17:34 51.41383 -0.18178 6385 ft 267 kts 102°
2026-05-07 17:35 51.40989 -0.15293 6999 ft 270 kts 102°
2026-05-07 17:35 51.40585 -0.12325 7627 ft 275 kts 103°
2026-05-07 17:35 51.40169 -0.09313 8279 ft 279 kts 103°
2026-05-07 17:35 51.39746 -0.06263 8944 ft 283 kts 104°
2026-05-07 17:36 51.39318 -0.03187 9625 ft 286 kts 104°
2026-05-07 17:36 51.38882 -0.00053 10246 ft 291 kts 104°
2026-05-07 17:36 51.38427 0.03200 10573 ft 309 kts 104°
2026-05-07 17:36 51.37944 0.06648 10835 ft 326 kts 104°
2026-05-07 17:37 51.37437 0.10287 11110 ft 343 kts 104°
2026-05-07 17:37 51.36904 0.14096 11377 ft 359 kts 104°
2026-05-07 17:37 51.36342 0.18084 11627 ft 374 kts 104°
2026-05-07 17:37 51.35762 0.22205 11953 ft 386 kts 104°
2026-05-07 17:38 51.35166 0.26419 12476 ft 391 kts 104°
2026-05-07 17:38 51.34562 0.30680 13082 ft 394 kts 104°
2026-05-07 17:38 51.33951 0.34980 13691 ft 397 kts 104°
2026-05-07 17:38 51.33341 0.39253 14191 ft 402 kts 104°
2026-05-07 17:39 51.32704 0.43690 14485 ft 407 kts 105°
2026-05-07 17:39 51.32115 0.48080 14971 ft 412 kts 99°
2026-05-07 17:39 51.31888 0.52722 15531 ft 415 kts 92°
2026-05-07 17:39 51.31858 0.57298 16032 ft 419 kts 91°
2026-05-07 17:40 51.31846 0.61980 16527 ft 423 kts 91°
2026-05-07 17:40 51.31834 0.66701 17042 ft 427 kts 91°
2026-05-07 17:40 51.31819 0.71472 17563 ft 430 kts 91°
2026-05-07 17:40 51.31800 0.76278 18083 ft 434 kts 91°
2026-05-07 17:41 51.31778 0.81130 18573 ft 438 kts 91°
2026-05-07 17:41 51.31753 0.86023 19062 ft 441 kts 91°
2026-05-07 17:41 51.31728 0.90948 19571 ft 444 kts 91°
2026-05-07 17:41 51.31703 0.95919 20085 ft 448 kts 91°
2026-05-07 17:42 51.31675 1.00907 20571 ft 451 kts 91°
2026-05-07 17:42 51.31528 1.05937 21050 ft 454 kts 98°
2026-05-07 17:42 51.31072 1.10935 21524 ft 457 kts 101°
2026-05-07 17:42 51.30500 1.15951 22011 ft 460 kts 102°
2026-05-07 17:43 51.29864 1.20911 22474 ft 463 kts 103°
2026-05-07 17:43 51.29179 1.25953 22943 ft 466 kts 103°
2026-05-07 17:43 51.28476 1.31030 23410 ft 470 kts 103°
2026-05-07 17:43 51.27765 1.36144 23833 ft 473 kts 103°
2026-05-07 17:44 51.27051 1.41301 24231 ft 476 kts 103°
2026-05-07 17:44 51.26336 1.46488 24616 ft 479 kts 103°
2026-05-07 17:44 51.25620 1.51700 25015 ft 482 kts 103°
2026-05-07 17:44 51.24899 1.56947 25393 ft 485 kts 103°
2026-05-07 17:45 51.24173 1.62228 25787 ft 488 kts 103°
2026-05-07 17:45 51.23442 1.67522 26163 ft 491 kts 103°
2026-05-07 17:45 51.22702 1.72862 26553 ft 494 kts 103°
2026-05-07 17:45 51.21955 1.78231 26927 ft 497 kts 104°
2026-05-07 17:46 51.21201 1.83631 27296 ft 499 kts 104°
2026-05-07 17:46 51.20452 1.88974 27658 ft 502 kts 104°
2026-05-07 17:46 51.19686 1.94420 28007 ft 505 kts 104°
2026-05-07 17:46 51.18913 1.99888 28362 ft 507 kts 104°
2026-05-07 17:47 51.18135 2.05379 28689 ft 510 kts 104°
2026-05-07 17:47 51.17338 2.10982 28997 ft 513 kts 104°
2026-05-07 17:47 51.15765 2.21980 29065 ft 511 kts 104°
2026-05-07 17:48 51.14173 2.33028 29536 ft 511 kts 104°
2026-05-07 17:48 51.13375 2.38538 30048 ft 509 kts 104°
2026-05-07 17:48 51.12578 2.44024 30463 ft 508 kts 104°
2026-05-07 17:49 51.11779 2.49501 30825 ft 507 kts 104°
2026-05-07 17:49 51.10977 2.54972 31169 ft 507 kts 104°
2026-05-07 17:49 51.10177 2.60417 31492 ft 506 kts 104°
2026-05-07 17:49 51.09373 2.65875 31835 ft 505 kts 104°
2026-05-07 17:50 51.08568 2.71309 32155 ft 505 kts 104°
2026-05-07 17:50 51.07750 2.76744 32464 ft 504 kts 105°
2026-05-07 17:50 51.06937 2.82095 32774 ft 504 kts 105°
2026-05-07 17:50 51.06112 2.87506 33023 ft 504 kts 105°
2026-05-07 17:51 51.04446 2.98386 33070 ft 508 kts 105°
2026-05-07 17:51 51.02770 3.09293 33067 ft 508 kts 105°
2026-05-07 17:52 51.01084 3.20204 33063 ft 508 kts 105°
2026-05-07 17:52 50.99388 3.31103 33050 ft 508 kts 105°
2026-05-07 17:53 50.97683 3.41991 33053 ft 508 kts 105°
2026-05-07 17:53 50.95970 3.52852 33054 ft 507 kts 105°
2026-05-07 17:54 50.94247 3.63708 33052 ft 507 kts 105°
2026-05-07 17:54 50.92514 3.74547 33051 ft 507 kts 105°
2026-05-07 17:55 50.90771 3.85383 33055 ft 506 kts 105°
2026-05-07 17:55 50.89025 3.96173 33067 ft 505 kts 105°
2026-05-07 17:56 50.87256 4.06947 33066 ft 505 kts 107°
2026-05-07 17:56 50.85287 4.17553 33084 ft 505 kts 108°
2026-05-07 17:57 50.83562 4.26461 33068 ft 505 kts 108°
2026-05-07 17:57 50.81192 4.38811 33093 ft 505 kts 108°
2026-05-07 17:58 50.79510 4.47645 33074 ft 505 kts 108°
2026-05-07 17:58 50.77477 4.58312 33073 ft 507 kts 108°
2026-05-07 17:59 50.75430 4.68989 33067 ft 508 kts 108°
2026-05-07 17:59 50.73504 4.79720 33069 ft 507 kts 105°
2026-05-07 18:00 50.71845 4.90536 33075 ft 507 kts 104°
2026-05-07 18:00 50.70235 5.01373 33075 ft 507 kts 104°
2026-05-07 18:01 50.68603 5.12195 33069 ft 507 kts 104°
2026-05-07 18:01 50.66928 5.22891 33072 ft 505 kts 105°
2026-05-07 18:02 50.64190 5.38960 33077 ft 505 kts 106°
2026-05-07 18:03 50.62360 5.49636 33067 ft 505 kts 106°
2026-05-07 18:03 50.60532 5.60334 33055 ft 505 kts 106°
2026-05-07 18:04 50.58705 5.71001 33059 ft 504 kts 106°
2026-05-07 18:04 50.56870 5.81648 33048 ft 504 kts 106°
2026-05-07 18:05 50.55036 5.92221 33051 ft 504 kts 106°
2026-05-07 18:05 50.53181 6.02848 33052 ft 504 kts 106°
2026-05-07 18:06 50.51315 6.13470 33049 ft 503 kts 106°
2026-05-07 18:06 50.49443 6.24068 33052 ft 503 kts 106°
2026-05-07 18:07 50.47563 6.34645 33049 ft 503 kts 107°
2026-05-07 18:07 50.45670 6.45232 33044 ft 504 kts 107°
2026-05-07 18:08 50.43767 6.55813 33050 ft 504 kts 106°
2026-05-07 18:08 50.41867 6.66319 33049 ft 503 kts 107°
2026-05-07 18:09 50.39949 6.76869 33047 ft 503 kts 107°
2026-05-07 18:09 50.38016 6.87433 33048 ft 503 kts 107°
2026-05-07 18:10 50.36077 6.97971 33048 ft 503 kts 107°
2026-05-07 18:10 50.34133 7.08478 33048 ft 502 kts 107°
2026-05-07 18:11 50.32180 7.18972 33048 ft 502 kts 107°
2026-05-07 18:11 50.30227 7.29407 33047 ft 502 kts 107°
2026-05-07 18:12 50.28255 7.39880 33046 ft 502 kts 107°
2026-05-07 18:12 50.26273 7.50351 33049 ft 502 kts 107°
2026-05-07 18:13 50.24284 7.60803 33048 ft 502 kts 107°
2026-05-07 18:13 50.22282 7.71264 33046 ft 502 kts 107°
2026-05-07 18:14 50.20272 7.81707 33051 ft 502 kts 107°
2026-05-07 18:14 50.18253 7.92139 33054 ft 503 kts 107°
2026-05-07 18:15 50.16221 8.02585 33052 ft 503 kts 107°
2026-05-07 18:15 50.14175 8.13044 33055 ft 503 kts 107°
2026-05-07 18:16 50.12137 8.23409 33055 ft 504 kts 107°
2026-05-07 18:16 50.10068 8.33869 33055 ft 505 kts 107°
2026-05-07 18:17 50.07991 8.44314 33047 ft 505 kts 107°
2026-05-07 18:17 50.05914 8.54705 33047 ft 505 kts 107°
2026-05-07 18:18 50.03842 8.65017 33046 ft 505 kts 107°
2026-05-07 18:18 50.01715 8.75544 33049 ft 505 kts 107°
2026-05-07 18:19 49.99603 8.85946 33050 ft 505 kts 107°
2026-05-07 18:19 49.97477 8.96354 33051 ft 505 kts 107°
2026-05-07 18:20 49.95356 9.06692 33053 ft 505 kts 108°
2026-05-07 18:20 49.93209 9.17100 33059 ft 505 kts 108°
2026-05-07 18:21 49.91057 9.27473 33053 ft 505 kts 108°
2026-05-07 18:21 49.88895 9.37841 33057 ft 505 kts 108°
2026-05-07 18:22 49.86728 9.48182 33056 ft 505 kts 108°
2026-05-07 18:22 49.84547 9.58536 33054 ft 505 kts 108°
2026-05-07 18:23 49.82360 9.68870 33056 ft 505 kts 108°
2026-05-07 18:23 49.80163 9.79193 33054 ft 505 kts 108°
2026-05-07 18:24 49.77966 9.89467 33056 ft 505 kts 108°
2026-05-07 18:24 49.75748 9.99782 33061 ft 505 kts 109°
2026-05-07 18:25 49.73519 10.10102 33062 ft 506 kts 109°
2026-05-07 18:25 49.71274 10.20443 33062 ft 506 kts 109°
2026-05-07 18:26 49.69022 10.30761 33064 ft 506 kts 109°
2026-05-07 18:26 49.66776 10.41001 33059 ft 506 kts 109°
2026-05-07 18:27 49.64505 10.51307 33058 ft 507 kts 109°
2026-05-07 18:27 49.62221 10.61602 33058 ft 507 kts 110°
2026-05-07 18:28 49.59747 10.71768 33059 ft 507 kts 112°
2026-05-07 18:28 49.57056 10.81835 33053 ft 507 kts 113°
2026-05-07 18:29 49.54361 10.91876 33048 ft 508 kts 113°
2026-05-07 18:29 49.51697 11.01900 33047 ft 508 kts 112°
2026-05-07 18:30 49.49026 11.11970 33048 ft 508 kts 112°
2026-05-07 18:30 49.46346 11.22042 33050 ft 508 kts 113°
2026-05-07 18:31 49.43683 11.32003 33056 ft 508 kts 113°
2026-05-07 18:31 49.40982 11.42055 33055 ft 509 kts 113°
2026-05-07 18:32 49.38272 11.52099 33061 ft 510 kts 113°
2026-05-07 18:32 49.35544 11.62163 33061 ft 510 kts 113°
2026-05-07 18:33 49.32824 11.72158 33059 ft 510 kts 114°
2026-05-07 18:33 49.30076 11.82213 33056 ft 510 kts 114°
2026-05-07 18:34 49.27321 11.92246 33057 ft 510 kts 114°
2026-05-07 18:34 49.24559 12.02266 33062 ft 510 kts 114°
2026-05-07 18:35 49.21786 12.12283 33050 ft 512 kts 114°
2026-05-07 18:35 49.19014 12.22250 33060 ft 512 kts 114°
2026-05-07 18:36 49.16216 12.32270 33053 ft 512 kts 114°
2026-05-07 18:36 49.13412 12.42271 33054 ft 512 kts 114°
2026-05-07 18:37 49.10598 12.52271 33055 ft 513 kts 115°
2026-05-07 18:37 49.07785 12.62219 33053 ft 513 kts 115°
2026-05-07 18:38 49.04938 12.72244 33052 ft 513 kts 115°
2026-05-07 18:38 49.02106 12.82173 33051 ft 514 kts 115°
2026-05-07 18:39 48.99235 12.92203 33053 ft 514 kts 115°
2026-05-07 18:39 48.96384 13.02120 33053 ft 514 kts 115°
2026-05-07 18:40 48.93500 13.12108 33055 ft 514 kts 115°
2026-05-07 18:40 48.90626 13.22024 33054 ft 514 kts 115°
2026-05-07 18:41 48.87728 13.31980 33065 ft 515 kts 116°
2026-05-07 18:41 48.85309 13.40263 33018 ft 514 kts 116°
2026-05-07 18:42 48.82404 13.50165 33045 ft 515 kts 116°
2026-05-07 18:42 48.79474 13.60114 33112 ft 514 kts 116°
2026-05-07 18:43 48.76572 13.69938 33051 ft 508 kts 116°
2026-05-07 18:43 48.73837 13.79834 33046 ft 509 kts 113°
2026-05-07 18:44 48.71361 13.89830 33037 ft 510 kts 112°
2026-05-07 18:44 48.68857 13.99870 33037 ft 510 kts 112°
2026-05-07 18:45 48.66293 14.09904 33039 ft 508 kts 113°
2026-05-07 18:45 48.63734 14.19782 33044 ft 507 kts 114°
2026-05-07 18:46 48.61133 14.29756 33040 ft 508 kts 114°
2026-05-07 18:46 48.58550 14.39631 33039 ft 508 kts 114°
2026-05-07 18:47 48.55923 14.49636 33031 ft 513 kts 114°
2026-05-07 18:47 48.53301 14.59587 33035 ft 513 kts 114°
2026-05-07 18:48 48.50654 14.69593 33032 ft 513 kts 114°
2026-05-07 18:48 48.47995 14.79591 33031 ft 513 kts 114°
2026-05-07 18:49 48.45349 14.89504 33023 ft 511 kts 115°
2026-05-07 18:49 48.42691 14.99417 33024 ft 510 kts 115°
2026-05-07 18:50 48.40027 15.09309 33022 ft 509 kts 115°
2026-05-07 18:50 48.37353 15.19192 33021 ft 510 kts 115°
2026-05-07 18:51 48.34674 15.29058 33021 ft 507 kts 115°
2026-05-07 18:51 48.32017 15.38799 33016 ft 506 kts 115°
2026-05-07 18:52 48.29335 15.48589 33013 ft 506 kts 115°
2026-05-07 18:52 48.26665 15.58299 33035 ft 505 kts 116°
2026-05-07 18:52 48.25320 15.63179 33228 ft 506 kts 116°
2026-05-07 18:53 48.23975 15.68048 33063 ft 501 kts 116°
2026-05-07 18:53 48.21294 15.77720 32993 ft 504 kts 116°
2026-05-07 18:54 48.18579 15.87461 33013 ft 507 kts 116°
2026-05-07 18:54 48.15854 15.97209 33008 ft 507 kts 116°
2026-05-07 18:55 48.13129 16.06913 33014 ft 509 kts 117°
2026-05-07 18:55 48.10370 16.16701 33016 ft 510 kts 117°
2026-05-07 18:56 48.07600 16.26496 33017 ft 510 kts 117°
2026-05-07 18:56 48.04846 16.36197 33017 ft 510 kts 117°
2026-05-07 18:57 48.02065 16.45943 33021 ft 512 kts 117°
2026-05-07 18:57 47.99256 16.55746 33025 ft 513 kts 118°
2026-05-07 18:58 47.96440 16.65537 33019 ft 513 kts 118°
2026-05-07 18:58 47.93617 16.75316 33018 ft 513 kts 118°
2026-05-07 18:59 47.90804 16.85020 33014 ft 513 kts 118°
2026-05-07 18:59 47.87963 16.94779 33011 ft 513 kts 118°
2026-05-07 19:00 47.85117 17.04518 33013 ft 513 kts 118°
2026-05-07 19:00 47.82276 17.14271 32999 ft 514 kts 117°
2026-05-07 19:01 47.79860 17.24332 33006 ft 517 kts 113°
2026-05-07 19:01 47.77620 17.34501 33001 ft 517 kts 113°
2026-05-07 19:02 47.75331 17.44567 32996 ft 517 kts 114°
2026-05-07 19:02 47.72965 17.54648 32990 ft 515 kts 115°
2026-05-07 19:03 47.70591 17.64635 32991 ft 511 kts 115°
2026-05-07 19:03 47.68211 17.74585 32993 ft 511 kts 115°
2026-05-07 19:04 47.65757 17.84475 33004 ft 510 kts 117°
2026-05-07 19:04 47.63036 17.94166 33019 ft 508 kts 119°
2026-05-07 19:05 47.60270 18.03721 33000 ft 508 kts 119°
2026-05-07 19:05 47.57515 18.13339 33448 ft 504 kts 119°
2026-05-07 19:05 47.56155 18.18123 33818 ft 503 kts 119°
2026-05-07 19:06 47.54797 18.22895 34069 ft 503 kts 119°
2026-05-07 19:06 47.52078 18.32431 34437 ft 503 kts 118°
2026-05-07 19:06 47.50718 18.37191 34626 ft 503 kts 118°
2026-05-07 19:07 47.49351 18.41961 34816 ft 503 kts 118°
2026-05-07 19:07 47.47983 18.46724 34969 ft 504 kts 118°
2026-05-07 19:07 47.45232 18.56270 35010 ft 511 kts 118°
2026-05-07 19:08 47.42445 18.65913 35003 ft 510 kts 118°
2026-05-07 19:08 47.39646 18.75561 35012 ft 511 kts 118°
2026-05-07 19:09 47.36840 18.85193 35012 ft 511 kts 118°
2026-05-07 19:09 47.34032 18.94794 35014 ft 511 kts 118°
2026-05-07 19:10 47.31202 19.04427 35015 ft 512 kts 118°
2026-05-07 19:10 47.28361 19.14059 35017 ft 512 kts 118°
2026-05-07 19:11 47.25525 19.23639 35018 ft 513 kts 118°
2026-05-07 19:11 47.22669 19.33251 35016 ft 513 kts 119°
2026-05-07 19:12 47.19803 19.42859 35018 ft 513 kts 118°
2026-05-07 19:12 47.16928 19.52458 35011 ft 513 kts 118°
2026-05-07 19:13 47.14044 19.62049 35011 ft 513 kts 118°
2026-05-07 19:13 47.11156 19.71619 34979 ft 513 kts 118°
2026-05-07 19:14 47.08278 19.81120 35018 ft 510 kts 118°
2026-05-07 19:14 47.05391 19.90613 35017 ft 509 kts 118°
2026-05-07 19:15 47.02495 20.00097 35017 ft 509 kts 118°
2026-05-07 19:15 46.99590 20.09574 34999 ft 509 kts 118°
2026-05-07 19:16 46.96693 20.18995 35008 ft 506 kts 118°
2026-05-07 19:16 46.93794 20.28384 35007 ft 506 kts 118°
2026-05-07 19:17 46.90887 20.37760 35007 ft 506 kts 118°
2026-05-07 19:17 46.87989 20.47074 35007 ft 506 kts 118°
2026-05-07 19:18 46.85063 20.56446 35007 ft 506 kts 119°
2026-05-07 19:18 46.82134 20.65792 35007 ft 506 kts 119°
2026-05-07 19:19 46.79194 20.75138 35007 ft 506 kts 119°
2026-05-07 19:19 46.76253 20.84456 35008 ft 503 kts 118°
2026-05-07 19:20 46.73322 20.93710 35009 ft 502 kts 119°
2026-05-07 19:20 46.70403 21.02887 35007 ft 502 kts 119°
2026-05-07 19:21 46.67459 21.12110 35009 ft 502 kts 119°
2026-05-07 19:21 46.64512 21.21310 35011 ft 501 kts 118°
2026-05-07 19:22 46.61555 21.30510 35013 ft 502 kts 118°
2026-05-07 19:22 46.58585 21.39717 35015 ft 502 kts 119°
2026-05-07 19:23 46.55614 21.48897 35000 ft 502 kts 118°
2026-05-07 19:23 46.52661 21.57988 35018 ft 499 kts 119°
2026-05-07 19:24 46.49687 21.67109 35006 ft 499 kts 119°
2026-05-07 19:24 46.46712 21.76200 35022 ft 499 kts 119°
2026-05-07 19:25 46.43727 21.85290 35015 ft 498 kts 119°
2026-05-07 19:25 46.40744 21.94345 35025 ft 497 kts 119°
2026-05-07 19:26 46.37762 22.03359 35033 ft 496 kts 119°
2026-05-07 19:26 46.34789 22.12320 35032 ft 496 kts 119°
2026-05-07 19:27 46.31792 22.21326 35029 ft 497 kts 119°
2026-05-07 19:27 46.28784 22.30327 35037 ft 497 kts 119°
2026-05-07 19:28 46.25767 22.39329 35037 ft 497 kts 119°
2026-05-07 19:28 46.23254 22.46807 35040 ft 497 kts 119°
2026-05-07 19:29 46.20228 22.55783 35035 ft 498 kts 119°
2026-05-07 19:29 46.17188 22.64758 35043 ft 498 kts 119°
2026-05-07 19:30 46.14140 22.73726 35040 ft 498 kts 119°
2026-05-07 19:30 46.11083 22.82694 35043 ft 498 kts 119°
2026-05-07 19:31 46.08023 22.91644 35045 ft 498 kts 120°
2026-05-07 19:31 46.04968 23.00549 35042 ft 498 kts 120°
2026-05-07 19:32 46.01889 23.09493 35045 ft 498 kts 120°
2026-05-07 19:32 45.98804 23.18418 35048 ft 498 kts 120°
2026-05-07 19:33 45.95709 23.27342 35033 ft 498 kts 120°
2026-05-07 19:33 45.92611 23.36256 35051 ft 499 kts 120°
2026-05-07 19:34 45.89504 23.45162 35055 ft 498 kts 120°
2026-05-07 19:34 45.86390 23.54059 35048 ft 500 kts 120°
2026-05-07 19:35 45.83256 23.62977 35043 ft 501 kts 120°
2026-05-07 19:35 45.80132 23.71834 35051 ft 501 kts 120°
2026-05-07 19:36 45.76981 23.80746 35049 ft 501 kts 120°
2026-05-07 19:36 45.73821 23.89654 35048 ft 501 kts 121°
2026-05-07 19:37 45.70658 23.98540 35046 ft 501 kts 121°
2026-05-07 19:37 45.67487 24.07420 35052 ft 501 kts 121°
2026-05-07 19:38 45.64310 24.16288 35046 ft 501 kts 121°
2026-05-07 19:38 45.60999 24.25011 35052 ft 502 kts 124°
2026-05-07 19:39 45.57326 24.33490 35053 ft 502 kts 126°
2026-05-07 19:39 45.53633 24.41940 35061 ft 501 kts 125°
2026-05-07 19:40 45.49993 24.50416 35056 ft 501 kts 124°
2026-05-07 19:40 45.46373 24.58909 35066 ft 501 kts 124°
2026-05-07 19:41 45.42752 24.67389 35070 ft 500 kts 124°
2026-05-07 19:41 45.39147 24.75800 35067 ft 501 kts 125°
2026-05-07 19:42 45.35513 24.84253 35074 ft 500 kts 124°
2026-05-07 19:42 45.31877 24.92682 35074 ft 500 kts 124°
2026-05-07 19:43 45.28233 25.01101 35074 ft 500 kts 124°
2026-05-07 19:43 45.24578 25.09519 35070 ft 500 kts 124°
2026-05-07 19:44 45.20930 25.17898 35072 ft 499 kts 124°
2026-05-07 19:44 45.17301 25.26212 35066 ft 498 kts 124°
2026-05-07 19:45 45.13638 25.34580 35067 ft 498 kts 124°
2026-05-07 19:45 45.09972 25.42924 35066 ft 499 kts 124°
2026-05-07 19:46 45.06322 25.51212 35064 ft 499 kts 124°
2026-05-07 19:46 45.02638 25.59553 35064 ft 499 kts 124°
2026-05-07 19:47 44.98953 25.67873 35045 ft 499 kts 124°
2026-05-07 19:47 44.95258 25.76187 35054 ft 499 kts 124°
2026-05-07 19:48 44.91562 25.84482 35056 ft 499 kts 124°
2026-05-07 19:48 44.87855 25.92776 35055 ft 499 kts 124°
2026-05-07 19:49 44.84142 26.01061 35052 ft 501 kts 124°
2026-05-07 19:49 44.80399 26.09387 35050 ft 503 kts 124°
2026-05-07 19:50 44.76675 26.17646 35050 ft 503 kts 124°
2026-05-07 19:50 44.72915 26.25965 35051 ft 503 kts 124°
2026-05-07 19:51 44.69143 26.34283 35049 ft 506 kts 124°
2026-05-07 19:51 44.65341 26.42640 35060 ft 507 kts 124°
2026-05-07 19:52 44.61535 26.50987 35054 ft 506 kts 124°
2026-05-07 19:52 44.57750 26.59306 35049 ft 507 kts 123°
2026-05-07 19:53 44.54108 26.67800 35052 ft 508 kts 122°
2026-05-07 19:53 44.50507 26.76330 35054 ft 508 kts 122°
2026-05-07 19:54 44.46878 26.84831 35057 ft 508 kts 123°
2026-05-07 19:54 44.43228 26.93301 35051 ft 508 kts 123°
2026-05-07 19:55 44.39564 27.01757 35052 ft 508 kts 123°
2026-05-07 19:55 44.35916 27.10154 35051 ft 508 kts 123°
2026-05-07 19:56 44.32214 27.18653 35056 ft 509 kts 123°
2026-05-07 19:56 44.28544 27.27050 35058 ft 510 kts 123°
2026-05-07 19:57 44.24844 27.35498 35061 ft 510 kts 123°
2026-05-07 19:57 44.21136 27.43941 35062 ft 510 kts 123°
2026-05-07 19:58 44.17411 27.52394 35069 ft 513 kts 123°
2026-05-07 19:58 44.13666 27.60869 35072 ft 513 kts 123°
2026-05-07 19:59 44.09925 27.69310 35068 ft 511 kts 123°
2026-05-07 19:59 44.06181 27.77732 35080 ft 513 kts 123°
2026-05-07 20:00 44.02437 27.86130 35081 ft 515 kts 123°
2026-05-07 20:00 43.98657 27.94586 35088 ft 515 kts 123°
2026-05-07 20:01 43.94867 28.03035 35085 ft 515 kts 123°
2026-05-07 20:01 43.91064 28.11489 35090 ft 517 kts 123°
2026-05-07 20:02 43.87246 28.19948 35097 ft 517 kts 123°
2026-05-07 20:02 43.83423 28.28402 35102 ft 517 kts 123°
2026-05-07 20:03 43.79588 28.36856 35099 ft 519 kts 123°
2026-05-07 20:03 43.75741 28.45311 35103 ft 519 kts 123°
2026-05-07 20:04 43.71886 28.53762 35115 ft 519 kts 123°
2026-05-07 20:04 43.68006 28.62194 35127 ft 520 kts 122°
2026-05-07 20:05 43.64109 28.70623 35125 ft 521 kts 123°
2026-05-07 20:05 43.60260 28.78933 35125 ft 520 kts 123°
2026-05-07 20:06 43.56357 28.87335 35131 ft 520 kts 122°
2026-05-07 20:06 43.52438 28.95754 35128 ft 521 kts 122°
2026-05-07 20:07 43.48515 29.04159 35131 ft 521 kts 123°
2026-05-07 20:07 43.44584 29.12552 35131 ft 521 kts 122°
2026-05-07 20:08 43.40639 29.20956 35130 ft 523 kts 122°
2026-05-07 20:08 43.36710 29.29299 35132 ft 523 kts 122°
2026-05-07 20:09 43.32728 29.37733 35134 ft 523 kts 122°
2026-05-07 20:10 43.26811 29.50216 35133 ft 522 kts 122°
2026-05-07 20:10 43.22836 29.58575 35132 ft 522 kts 122°
2026-05-07 20:11 43.18859 29.66916 35128 ft 522 kts 122°
2026-05-07 20:11 43.14879 29.75236 35131 ft 522 kts 122°
2026-05-07 20:12 43.10890 29.83552 35120 ft 522 kts 122°
2026-05-07 20:12 43.07573 29.90452 35136 ft 523 kts 122°
2026-05-07 20:13 43.03567 29.98759 35134 ft 522 kts 122°
2026-05-07 20:13 42.99556 30.07055 35133 ft 522 kts 122°
2026-05-07 20:14 42.95544 30.15330 35131 ft 522 kts 122°
2026-05-07 20:14 42.90876 30.24930 35133 ft 522 kts 122°
2026-05-07 20:15 42.87505 30.31844 35132 ft 522 kts 122°
2026-05-07 20:15 42.83481 30.40076 35130 ft 522 kts 122°
2026-05-07 20:16 42.79449 30.48301 35131 ft 522 kts 122°
2026-05-07 20:16 42.75582 30.56573 35138 ft 520 kts 115°
2026-05-07 20:17 42.73291 30.65856 35137 ft 512 kts 97°
2026-05-07 20:17 42.72195 30.75369 35139 ft 512 kts 94°
2026-05-07 20:18 42.71269 30.84957 35133 ft 511 kts 94°
2026-05-07 20:18 42.70331 30.94538 35135 ft 511 kts 94°
2026-05-07 20:19 42.69352 31.04113 35135 ft 511 kts 94°
2026-05-07 20:19 42.68349 31.13693 35137 ft 511 kts 94°
2026-05-07 20:20 42.67338 31.23257 35135 ft 511 kts 94°
2026-05-07 20:20 42.66322 31.32819 35135 ft 511 kts 94°
2026-05-07 20:21 42.65297 31.42389 35135 ft 511 kts 94°
2026-05-07 20:21 42.64267 31.51929 35136 ft 510 kts 95°
2026-05-07 20:22 42.63236 31.61396 35135 ft 510 kts 95°
2026-05-07 20:22 42.62190 31.70926 35139 ft 510 kts 95°
2026-05-07 20:23 42.61138 31.80441 35133 ft 510 kts 95°
2026-05-07 20:23 42.60078 31.89958 35135 ft 509 kts 95°
2026-05-07 20:24 42.59010 31.99470 35135 ft 509 kts 95°
2026-05-07 20:24 42.58131 32.08990 35135 ft 507 kts 90°
2026-05-07 20:25 42.57709 32.18520 35135 ft 506 kts 89°
2026-05-07 20:25 42.57301 32.28004 35135 ft 506 kts 90°
2026-05-07 20:26 42.56811 32.37550 35133 ft 506 kts 90°
2026-05-07 20:26 42.56276 32.47069 35134 ft 506 kts 90°
2026-05-07 20:27 42.55727 32.56578 35136 ft 506 kts 90°
2026-05-07 20:27 42.55171 32.66098 35124 ft 506 kts 90°
2026-05-07 20:28 42.54610 32.75613 35137 ft 506 kts 90°
2026-05-07 20:28 42.54046 32.85060 35137 ft 506 kts 90°
2026-05-07 20:29 42.53469 32.94572 35131 ft 506 kts 90°
2026-05-07 20:29 42.52885 33.04083 35132 ft 506 kts 90°
2026-05-07 20:30 42.52293 33.13594 35132 ft 506 kts 91°
2026-05-07 20:30 42.51694 33.23094 35128 ft 505 kts 91°
2026-05-07 20:31 42.51087 33.32583 35130 ft 505 kts 91°
2026-05-07 20:31 42.50472 33.42083 35132 ft 504 kts 91°
2026-05-07 20:32 42.49851 33.51554 35138 ft 504 kts 91°
2026-05-07 20:32 42.49225 33.60964 35134 ft 504 kts 91°
2026-05-07 20:33 42.48589 33.70422 35136 ft 504 kts 91°
2026-05-07 20:33 42.47944 33.79897 35141 ft 504 kts 91°
2026-05-07 20:34 42.47293 33.89347 35137 ft 504 kts 91°
2026-05-07 20:34 42.46635 33.98774 35137 ft 502 kts 92°
2026-05-07 20:35 42.45970 34.08184 35140 ft 501 kts 92°
2026-05-07 20:35 42.45299 34.17578 35144 ft 501 kts 92°
2026-05-07 20:36 42.44620 34.26970 35143 ft 501 kts 92°
2026-05-07 20:36 42.43939 34.36289 35142 ft 500 kts 92°
2026-05-07 20:37 42.43245 34.45670 35149 ft 500 kts 92°
2026-05-07 20:37 42.42543 34.55054 35147 ft 500 kts 92°
2026-05-07 20:38 42.41833 34.64431 35154 ft 500 kts 92°
2026-05-07 20:38 42.41117 34.73798 35150 ft 499 kts 93°
2026-05-07 20:39 42.40396 34.83143 35149 ft 498 kts 93°
2026-05-07 20:39 42.39668 34.92464 35164 ft 498 kts 93°
2026-05-07 20:40 42.38937 35.01724 35161 ft 498 kts 93°
2026-05-07 20:40 42.38195 35.11044 35159 ft 498 kts 93°
2026-05-07 20:41 42.37444 35.20363 35164 ft 498 kts 93°
2026-05-07 20:41 42.36686 35.29677 35182 ft 498 kts 94°
2026-05-07 20:42 42.35921 35.38979 35167 ft 498 kts 94°
2026-05-07 20:42 42.35149 35.48275 35180 ft 497 kts 94°
2026-05-07 20:43 42.34371 35.57549 35172 ft 495 kts 94°
2026-05-07 20:43 42.33588 35.66777 35173 ft 494 kts 94°
2026-05-07 20:44 42.32803 35.75963 35172 ft 494 kts 94°
2026-05-07 20:44 42.32005 35.85199 35179 ft 494 kts 94°
2026-05-07 20:45 42.31201 35.94420 35178 ft 494 kts 94°
2026-05-07 20:45 42.30390 36.03639 35178 ft 494 kts 94°
2026-05-07 20:46 42.29571 36.12863 35185 ft 494 kts 94°
2026-05-07 20:46 42.28744 36.22079 35184 ft 494 kts 95°
2026-05-07 20:47 42.27915 36.31239 35184 ft 493 kts 95°
2026-05-07 20:47 42.27077 36.40417 35184 ft 492 kts 95°
2026-05-07 20:48 42.26232 36.49593 35186 ft 492 kts 95°
2026-05-07 20:48 42.25381 36.58750 35187 ft 492 kts 95°
2026-05-07 20:49 42.24522 36.67924 35188 ft 492 kts 95°
2026-05-07 20:49 42.23655 36.77084 35189 ft 492 kts 95°
2026-05-07 20:50 42.22781 36.86248 35189 ft 492 kts 95°
2026-05-07 20:50 42.21905 36.95348 35189 ft 492 kts 95°
2026-05-07 20:51 42.21017 37.04501 35195 ft 492 kts 95°
2026-05-07 20:51 42.20123 37.13630 35191 ft 490 kts 95°
2026-05-07 20:52 42.19223 37.22752 35194 ft 490 kts 96°
2026-05-07 20:52 42.18315 37.31877 35191 ft 491 kts 96°
2026-05-07 20:53 42.17400 37.41001 35193 ft 491 kts 96°
2026-05-07 20:53 42.16478 37.50117 35195 ft 491 kts 96°
2026-05-07 20:54 42.15548 37.59234 35200 ft 491 kts 96°
2026-05-07 20:54 42.14609 37.68365 35198 ft 492 kts 96°
2026-05-07 20:55 42.13663 37.77498 35194 ft 492 kts 96°
2026-05-07 20:55 42.12710 37.86620 35197 ft 492 kts 96°
2026-05-07 20:56 42.11755 37.95696 35205 ft 492 kts 96°
2026-05-07 20:56 42.10787 38.04817 35198 ft 492 kts 96°
2026-05-07 20:57 42.09811 38.13943 35195 ft 492 kts 96°
2026-05-07 20:57 42.08828 38.23069 35193 ft 492 kts 96°
2026-05-07 20:58 42.07838 38.32184 35207 ft 492 kts 96°
2026-05-07 20:58 42.06846 38.41256 35198 ft 493 kts 96°
2026-05-07 20:59 42.05840 38.50386 35202 ft 493 kts 96°
2026-05-07 20:59 42.04992 38.58025 35210 ft 493 kts 96°
2026-05-07 21:00 42.03975 38.67124 35200 ft 491 kts 96°
2026-05-07 21:00 42.02960 38.76143 35199 ft 492 kts 97°
2026-05-07 21:01 42.01927 38.85259 35199 ft 492 kts 97°
2026-05-07 21:01 42.00888 38.94355 35202 ft 492 kts 97°
2026-05-07 21:02 41.99842 39.03453 35200 ft 492 kts 97°
2026-05-07 21:02 41.98787 39.12555 35200 ft 493 kts 97°
2026-05-07 21:03 41.97724 39.21666 35201 ft 493 kts 97°
2026-05-07 21:03 41.96652 39.30764 35203 ft 493 kts 97°
2026-05-07 21:04 41.95583 39.39806 35203 ft 492 kts 97°
2026-05-07 21:04 41.94503 39.48870 35204 ft 491 kts 97°
2026-05-07 21:05 41.93417 39.57927 35203 ft 491 kts 97°
2026-05-07 21:05 41.92324 39.66979 35203 ft 491 kts 97°
2026-05-07 21:06 41.91222 39.76035 35202 ft 491 kts 98°
2026-05-07 21:06 41.90113 39.85090 35210 ft 492 kts 98°
2026-05-07 21:07 41.88999 39.94128 35205 ft 494 kts 98°
2026-05-07 21:07 41.87869 40.03227 35205 ft 494 kts 98°
2026-05-07 21:08 41.86732 40.12330 35203 ft 494 kts 98°
2026-05-07 21:08 41.85590 40.21411 35208 ft 494 kts 98°
2026-05-07 21:09 41.84434 40.30549 35205 ft 497 kts 99°
2026-05-07 21:09 41.83267 40.39698 35206 ft 497 kts 99°
2026-05-07 21:10 41.82094 40.48843 35205 ft 497 kts 99°
2026-05-07 21:10 41.80914 40.57975 35205 ft 497 kts 99°
2026-05-07 21:11 41.80327 40.67117 35201 ft 495 kts 85°
2026-05-07 21:11 41.81724 40.80829 35206 ft 494 kts 79°
2026-05-07 21:12 41.82879 40.89915 35205 ft 494 kts 79°
2026-05-07 21:12 41.84018 40.99003 35205 ft 494 kts 79°
2026-05-07 21:13 41.85128 41.08108 35203 ft 495 kts 80°
2026-05-07 21:13 41.86217 41.17183 35202 ft 496 kts 80°
2026-05-07 21:14 41.87305 41.26316 35203 ft 496 kts 81°
2026-05-07 21:14 41.88385 41.35444 35201 ft 495 kts 81°
2026-05-07 21:15 41.89460 41.44582 35202 ft 495 kts 80°
2026-05-07 21:15 41.90528 41.53724 35198 ft 495 kts 81°
2026-05-07 21:16 41.91588 41.62862 35198 ft 495 kts 81°
2026-05-07 21:16 41.92643 41.72018 35192 ft 497 kts 81°
2026-05-07 21:17 41.93691 41.81195 35192 ft 497 kts 81°
2026-05-07 21:17 41.94726 41.90326 35189 ft 497 kts 81°
2026-05-07 21:18 41.95760 41.99508 35189 ft 497 kts 81°
2026-05-07 21:18 41.96789 42.08698 35189 ft 497 kts 81°
2026-05-07 21:19 41.97808 42.17887 35189 ft 497 kts 82°
2026-05-07 21:19 41.98821 42.27086 35190 ft 499 kts 82°
2026-05-07 21:20 41.99831 42.36325 35186 ft 500 kts 82°
2026-05-07 21:20 42.00835 42.45580 35186 ft 500 kts 82°
2026-05-07 21:21 42.01830 42.54822 35186 ft 499 kts 82°
2026-05-07 21:21 42.02818 42.64074 35187 ft 499 kts 82°
2026-05-07 21:22 42.03792 42.73270 35189 ft 499 kts 82°
2026-05-07 21:22 42.04765 42.82523 35192 ft 500 kts 82°
2026-05-07 21:23 42.05676 42.91837 35197 ft 502 kts 86°
2026-05-07 21:23 42.05165 43.01158 35203 ft 500 kts 105°
2026-05-07 21:24 42.02606 43.09803 35208 ft 498 kts 117°
2026-05-07 21:24 41.99383 43.18065 35208 ft 499 kts 120°
2026-05-07 21:25 41.96072 43.26284 35216 ft 501 kts 120°
2026-05-07 21:25 41.92777 43.34530 35216 ft 501 kts 119°
2026-05-07 21:26 41.89501 43.42783 35217 ft 501 kts 119°
2026-05-07 21:26 41.86223 43.51044 35219 ft 502 kts 120°
2026-05-07 21:27 41.82947 43.59274 35219 ft 503 kts 120°
2026-05-07 21:27 41.79644 43.67545 35216 ft 503 kts 120°
2026-05-07 21:28 41.76338 43.75798 35218 ft 503 kts 121°
2026-05-07 21:28 41.73023 43.84048 35213 ft 503 kts 121°
2026-05-07 21:29 41.69704 43.92288 35214 ft 503 kts 121°
2026-05-07 21:29 41.66380 44.00515 35211 ft 503 kts 121°
2026-05-07 21:30 41.63047 44.08741 35213 ft 503 kts 121°
2026-05-07 21:30 41.59733 44.16901 35211 ft 503 kts 122°
2026-05-07 21:31 41.57128 44.25598 35195 ft 509 kts 106°
2026-05-07 21:31 41.55950 44.34976 35205 ft 513 kts 101°
2026-05-07 21:32 41.55044 44.44425 35206 ft 514 kts 100°
2026-05-07 21:32 41.54154 44.53890 35199 ft 514 kts 100°
2026-05-07 21:33 41.53226 44.63344 35191 ft 514 kts 101°
2026-05-07 21:33 41.52272 44.72785 35187 ft 513 kts 101°
2026-05-07 21:34 41.51307 44.82233 35186 ft 513 kts 101°
2026-05-07 21:34 41.50342 44.91617 35185 ft 513 kts 101°
2026-05-07 21:35 41.49364 45.01052 35184 ft 514 kts 101°
2026-05-07 21:35 41.48377 45.10503 35176 ft 516 kts 102°
2026-05-07 21:36 41.47371 45.19992 35166 ft 516 kts 102°
2026-05-07 21:36 41.45305 45.29032 35167 ft 505 kts 121°
2026-05-07 21:37 41.41349 45.36594 35143 ft 495 kts 136°
2026-05-07 21:37 41.36703 45.43343 35167 ft 493 kts 139°
2026-05-07 21:38 41.31973 45.49966 35144 ft 493 kts 139°
2026-05-07 21:38 41.27288 45.56560 35141 ft 493 kts 139°
2026-05-07 21:39 41.22722 45.63401 35153 ft 499 kts 131°
2026-05-07 21:39 41.19453 45.71657 35158 ft 511 kts 117°
2026-05-07 21:40 41.17021 45.80566 35151 ft 514 kts 114°
2026-05-07 21:40 41.14709 45.89563 35151 ft 516 kts 115°
2026-05-07 21:41 41.12379 45.98507 35151 ft 516 kts 115°
2026-05-07 21:41 41.09996 46.07494 35149 ft 516 kts 115°
2026-05-07 21:42 41.07597 46.16462 35154 ft 517 kts 116°
2026-05-07 21:42 41.05184 46.25444 35155 ft 518 kts 116°
2026-05-07 21:43 41.02770 46.34445 35154 ft 518 kts 116°
2026-05-07 21:43 41.00365 46.43455 35131 ft 519 kts 116°
2026-05-07 21:44 40.97947 46.52484 35151 ft 521 kts 116°
2026-05-07 21:44 40.95534 46.61455 35154 ft 521 kts 116°
2026-05-07 21:45 40.93095 46.70486 35154 ft 521 kts 116°
2026-05-07 21:45 40.91100 46.79760 35149 ft 534 kts 104°
2026-05-07 21:46 40.91097 46.88006 35158 ft 549 kts 85°
2026-05-07 21:46 40.92698 46.97924 35155 ft 553 kts 80°
2026-05-07 21:47 40.94596 47.07803 35166 ft 555 kts 79°
2026-05-07 21:47 40.96491 47.17729 35169 ft 555 kts 80°
2026-05-07 21:48 40.98330 47.27662 35177 ft 555 kts 80°
2026-05-07 21:48 41.00127 47.37540 35174 ft 556 kts 81°
2026-05-07 21:49 41.01931 47.47524 35172 ft 558 kts 81°
2026-05-07 21:49 41.03733 47.57544 35163 ft 559 kts 81°
2026-05-07 21:50 41.05532 47.67580 35163 ft 559 kts 81°
2026-05-07 21:50 41.07319 47.77613 35167 ft 559 kts 81°
2026-05-07 21:51 41.09097 47.87641 35169 ft 559 kts 81°
2026-05-07 21:51 41.10934 47.97598 35174 ft 562 kts 75°
2026-05-07 21:52 41.13501 48.07398 35191 ft 563 kts 73°
2026-05-07 21:52 41.16220 48.17148 35191 ft 564 kts 72°
2026-05-07 21:53 41.18951 48.26918 35176 ft 564 kts 72°
2026-05-07 21:53 41.21657 48.36680 35169 ft 563 kts 72°
2026-05-07 21:54 41.24349 48.46472 35165 ft 564 kts 72°
2026-05-07 21:54 41.27034 48.56288 35149 ft 565 kts 72°
2026-05-07 21:55 41.29694 48.66041 35132 ft 565 kts 72°
2026-05-07 21:55 41.32364 48.75864 35135 ft 565 kts 73°
2026-05-07 21:56 41.35027 48.85698 35124 ft 564 kts 73°
2026-05-07 21:56 41.37681 48.95541 35115 ft 565 kts 73°
2026-05-07 21:57 41.40322 49.05385 35111 ft 565 kts 73°
2026-05-07 21:57 41.42957 49.15253 35108 ft 565 kts 73°
2026-05-07 21:58 41.45564 49.25049 35107 ft 564 kts 73°
2026-05-07 21:58 41.48180 49.34918 35108 ft 565 kts 73°
2026-05-07 21:59 41.50790 49.44802 35108 ft 565 kts 73°
2026-05-07 21:59 41.53393 49.54703 35109 ft 564 kts 73°
2026-05-07 22:00 41.55985 49.64598 35113 ft 565 kts 73°
2026-05-07 22:00 41.58571 49.74511 35114 ft 565 kts 73°
2026-05-07 22:01 41.61146 49.84426 35107 ft 565 kts 73°
2026-05-07 22:01 41.63714 49.94353 35112 ft 565 kts 73°
2026-05-07 22:02 41.66273 50.04285 35112 ft 565 kts 73°
2026-05-07 22:02 41.68820 50.14213 35113 ft 565 kts 73°
2026-05-07 22:03 41.71361 50.24160 35107 ft 565 kts 73°
2026-05-07 22:03 41.73877 50.34050 35108 ft 565 kts 73°
2026-05-07 22:04 41.76402 50.44014 35097 ft 565 kts 73°
2026-05-07 22:04 41.78919 50.53990 35105 ft 564 kts 73°
2026-05-07 22:05 41.81415 50.63920 35102 ft 564 kts 73°
2026-05-07 22:05 41.83914 50.73910 35102 ft 564 kts 74°
2026-05-07 22:06 41.86404 50.83905 35104 ft 564 kts 73°
2026-05-07 22:06 41.88886 50.93911 35102 ft 564 kts 74°
2026-05-07 22:07 41.91358 51.03915 35104 ft 564 kts 74°
2026-05-07 22:07 41.93801 51.13849 35081 ft 564 kts 74°
2026-05-07 22:08 41.96271 51.23935 35091 ft 564 kts 74°
2026-05-07 22:08 41.98698 51.33888 35100 ft 564 kts 74°
2026-05-07 22:09 42.01218 51.43889 35108 ft 566 kts 69°
2026-05-07 22:09 42.05044 51.53164 35105 ft 567 kts 58°
2026-05-07 22:10 42.09320 51.62093 35104 ft 568 kts 57°
2026-05-07 22:10 42.13668 51.70976 35109 ft 568 kts 57°
2026-05-07 22:11 42.17992 51.79880 35103 ft 568 kts 57°
2026-05-07 22:11 42.22289 51.88807 35087 ft 568 kts 57°
2026-05-07 22:12 42.26553 51.97715 35098 ft 568 kts 57°
2026-05-07 22:12 42.30830 52.06674 35089 ft 567 kts 57°
2026-05-07 22:13 42.35097 52.15637 35093 ft 567 kts 57°
2026-05-07 22:13 42.39358 52.24611 35092 ft 567 kts 57°
2026-05-07 22:14 42.43618 52.33610 35090 ft 567 kts 57°
2026-05-07 22:14 42.47867 52.42615 35092 ft 567 kts 57°
2026-05-07 22:15 42.52114 52.51641 35095 ft 567 kts 57°
2026-05-07 22:15 42.56321 52.60610 35093 ft 567 kts 57°
2026-05-07 22:16 42.60556 52.69665 35094 ft 567 kts 57°
2026-05-07 22:16 42.64780 52.78725 35092 ft 567 kts 57°
2026-05-07 22:17 42.68991 52.87785 35089 ft 567 kts 57°
2026-05-07 22:17 42.73199 52.96867 35091 ft 567 kts 57°
2026-05-07 22:18 42.79468 53.10446 35093 ft 567 kts 58°
2026-05-07 22:19 42.83652 53.19545 35085 ft 567 kts 58°
2026-05-07 22:19 42.87831 53.28662 35086 ft 567 kts 58°
2026-05-07 22:20 42.92004 53.37791 35084 ft 567 kts 58°
2026-05-07 22:20 42.96167 53.46927 35080 ft 567 kts 58°
2026-05-07 22:21 43.00090 53.56266 35081 ft 566 kts 68°
2026-05-07 22:21 43.01345 53.61341 35083 ft 563 kts 79°
2026-05-07 22:21 43.02052 53.66594 35083 ft 560 kts 85°
2026-05-07 22:22 43.02890 53.77102 35071 ft 559 kts 89°
2026-05-07 22:22 43.03507 53.87684 35075 ft 558 kts 89°
2026-05-07 22:23 43.04147 53.98288 35081 ft 558 kts 89°
2026-05-07 22:23 43.04822 54.08814 35072 ft 559 kts 88°
2026-05-07 22:24 43.05508 54.19409 35079 ft 559 kts 88°
2026-05-07 22:24 43.06186 54.30009 35075 ft 559 kts 89°
2026-05-07 22:25 43.06852 54.40608 35075 ft 559 kts 89°
2026-05-07 22:25 43.07507 54.51217 35075 ft 559 kts 89°
2026-05-07 22:26 43.08151 54.61818 35073 ft 560 kts 89°
2026-05-07 22:26 43.08783 54.72374 35075 ft 560 kts 89°
2026-05-07 22:27 43.09409 54.82998 35063 ft 560 kts 89°
2026-05-07 22:27 43.10025 54.93619 35072 ft 560 kts 89°
2026-05-07 22:28 43.10632 55.04263 35070 ft 560 kts 89°
2026-05-07 22:28 43.11229 55.14893 35069 ft 560 kts 89°
2026-05-07 22:29 43.11816 55.25537 35067 ft 560 kts 89°
2026-05-07 22:29 43.12393 55.36168 35066 ft 560 kts 89°
2026-05-07 22:30 43.12960 55.46809 35062 ft 560 kts 89°
2026-05-07 22:30 43.13515 55.57391 35054 ft 560 kts 90°
2026-05-07 22:31 43.14062 55.68025 35066 ft 559 kts 90°
2026-05-07 22:31 43.14598 55.78645 35048 ft 559 kts 90°
2026-05-07 22:32 43.15125 55.89266 35065 ft 558 kts 90°
2026-05-07 22:32 43.15421 55.99855 35234 ft 551 kts 99°
2026-05-07 22:32 43.15161 56.03289 35502 ft 546 kts 102°
2026-05-07 22:33 43.14652 56.08414 35876 ft 541 kts 103°
2026-05-07 22:33 43.14079 56.13504 36161 ft 540 kts 104°
2026-05-07 22:33 43.13265 56.20228 36403 ft 540 kts 104°
2026-05-07 22:33 43.12840 56.23654 36509 ft 541 kts 104°
2026-05-07 22:34 43.12002 56.30375 36778 ft 541 kts 104°
2026-05-07 22:34 43.11575 56.33807 36934 ft 541 kts 104°
2026-05-07 22:34 43.10946 56.38884 37052 ft 543 kts 104°
2026-05-07 22:35 43.09686 56.49061 37055 ft 547 kts 104°
2026-05-07 22:35 43.08418 56.59314 37052 ft 546 kts 104°
2026-05-07 22:36 43.07138 56.69576 37049 ft 547 kts 104°
2026-05-07 22:36 43.05848 56.79824 37055 ft 547 kts 104°
2026-05-07 22:37 43.04547 56.90077 37053 ft 547 kts 104°
2026-05-07 22:37 43.03237 57.00320 37051 ft 547 kts 104°
2026-05-07 22:38 43.01927 57.10499 37051 ft 547 kts 104°
2026-05-07 22:38 43.00599 57.20740 37043 ft 548 kts 104°
2026-05-07 22:39 42.99261 57.30987 37045 ft 548 kts 104°
2026-05-07 22:39 42.97915 57.41226 37045 ft 548 kts 105°
2026-05-07 22:40 42.96557 57.51472 37049 ft 547 kts 105°
2026-05-07 22:40 42.95191 57.61700 37038 ft 547 kts 105°
2026-05-07 22:41 42.93815 57.71928 37044 ft 548 kts 105°
2026-05-07 22:41 42.92429 57.82165 37039 ft 548 kts 105°
2026-05-07 22:42 42.91036 57.92392 37042 ft 548 kts 105°
2026-05-07 22:42 42.89631 58.02624 37039 ft 548 kts 105°
2026-05-07 22:43 42.88226 58.12785 37043 ft 548 kts 105°
2026-05-07 22:43 42.86803 58.23007 37043 ft 549 kts 105°
2026-05-07 22:44 42.85370 58.33235 37033 ft 549 kts 105°
2026-05-07 22:44 42.83938 58.43383 37029 ft 548 kts 105°
2026-05-07 22:45 42.82489 58.53590 37013 ft 548 kts 105°
2026-05-07 22:45 42.81027 58.63808 37033 ft 549 kts 105°
2026-05-07 22:46 42.79558 58.74013 37031 ft 549 kts 105°
2026-05-07 22:46 42.78081 58.84209 37028 ft 549 kts 105°
2026-05-07 22:47 42.76595 58.94404 37029 ft 548 kts 105°
2026-05-07 22:47 42.75095 59.04579 37027 ft 548 kts 105°
2026-05-07 22:48 42.73590 59.14694 37027 ft 548 kts 106°
2026-05-07 22:48 42.72034 59.24847 37027 ft 548 kts 106°
2026-05-07 22:49 42.70458 59.35002 37026 ft 547 kts 106°
2026-05-07 22:49 42.68885 59.45132 37014 ft 547 kts 106°
2026-05-07 22:50 42.67314 59.55202 37027 ft 548 kts 106°
2026-05-07 22:50 42.65723 59.65345 37023 ft 548 kts 106°
2026-05-07 22:51 42.64126 59.75468 37022 ft 548 kts 106°
2026-05-07 22:51 42.62519 59.85582 37024 ft 548 kts 106°
2026-05-07 22:52 42.60903 59.95701 37023 ft 549 kts 106°
2026-05-07 22:52 42.59278 60.05816 37019 ft 549 kts 106°
2026-05-07 22:53 42.57643 60.15933 37014 ft 549 kts 106°
2026-05-07 22:53 42.55999 60.26043 37029 ft 549 kts 106°
2026-05-07 22:54 42.54342 60.36169 37012 ft 549 kts 106°
2026-05-07 22:54 42.52676 60.46291 37019 ft 550 kts 107°
2026-05-07 22:55 42.51002 60.56407 37021 ft 550 kts 107°
2026-05-07 22:55 42.49326 60.66473 37020 ft 550 kts 107°
2026-05-07 22:56 42.47634 60.76578 37025 ft 550 kts 107°
2026-05-07 22:56 42.45930 60.86686 37019 ft 550 kts 107°
2026-05-07 22:57 42.44219 60.96789 37023 ft 550 kts 107°
2026-05-07 22:57 42.42497 61.06903 37016 ft 550 kts 107°
2026-05-07 22:58 42.40766 61.17006 37016 ft 550 kts 107°
2026-05-07 22:58 42.39039 61.27024 37015 ft 551 kts 107°
2026-05-07 22:59 42.37290 61.37116 37017 ft 551 kts 107°
2026-05-07 22:59 42.35534 61.47196 37016 ft 551 kts 107°
2026-05-07 23:00 42.33766 61.57287 37017 ft 551 kts 107°
2026-05-07 23:00 42.31989 61.67370 36992 ft 551 kts 107°
2026-05-07 23:01 42.30215 61.77381 37004 ft 550 kts 107°
2026-05-07 23:01 42.28427 61.87420 37005 ft 549 kts 107°
2026-05-07 23:02 42.26630 61.97451 37003 ft 548 kts 107°
2026-05-07 23:02 42.24827 62.07458 37005 ft 548 kts 107°
2026-05-07 23:03 42.23018 62.17450 37000 ft 548 kts 107°
2026-05-07 23:03 42.21203 62.27425 36997 ft 546 kts 107°
2026-05-07 23:04 42.19398 62.37295 36992 ft 544 kts 107°
2026-05-07 23:04 42.17574 62.47203 36994 ft 544 kts 107°
2026-05-07 23:05 42.15742 62.57109 36980 ft 544 kts 107°
2026-05-07 23:05 42.13906 62.66986 36985 ft 543 kts 107°
2026-05-07 23:06 42.12062 62.76855 36985 ft 542 kts 107°
2026-05-07 23:06 42.10247 62.86708 36984 ft 541 kts 106°
2026-05-07 23:07 42.08490 62.96569 36981 ft 541 kts 106°
2026-05-07 23:07 42.06722 63.06353 36971 ft 541 kts 107°
2026-05-07 23:08 42.04850 63.16145 36967 ft 540 kts 107°
2026-05-07 23:08 42.02955 63.25924 36965 ft 539 kts 107°
2026-05-07 23:09 42.01071 63.35665 36966 ft 538 kts 107°
2026-05-07 23:09 41.99183 63.45422 36966 ft 538 kts 107°
2026-05-07 23:10 41.97290 63.55161 36961 ft 538 kts 107°
2026-05-07 23:10 41.95389 63.64891 36960 ft 538 kts 107°
2026-05-07 23:11 41.93482 63.74607 36954 ft 536 kts 107°
2026-05-07 23:11 41.91587 63.84212 36957 ft 535 kts 107°
2026-05-07 23:12 41.89672 63.93869 36950 ft 535 kts 107°
2026-05-07 23:12 41.87750 64.03518 36949 ft 535 kts 107°
2026-05-07 23:13 41.85821 64.13155 36947 ft 533 kts 107°
2026-05-07 23:13 41.83889 64.22767 36947 ft 532 kts 107°
2026-05-07 23:14 41.81966 64.32283 36936 ft 533 kts 107°
2026-05-07 23:14 41.80016 64.41882 36940 ft 533 kts 107°
2026-05-07 23:15 41.78065 64.51449 36935 ft 532 kts 107°
2026-05-07 23:15 41.76152 64.61031 36927 ft 533 kts 103°
2026-05-07 23:16 41.74763 64.70783 36935 ft 533 kts 102°
2026-05-07 23:16 41.73480 64.80576 36934 ft 535 kts 101°
2026-05-07 23:17 41.72202 64.90391 36916 ft 535 kts 101°
2026-05-07 23:17 41.70915 65.00148 36908 ft 535 kts 101°
2026-05-07 23:18 41.69610 65.09921 36922 ft 533 kts 101°
2026-05-07 23:18 41.68296 65.19674 36923 ft 532 kts 102°
2026-05-07 23:19 41.66973 65.29431 36904 ft 532 kts 102°
2026-05-07 23:19 41.65642 65.39188 36908 ft 532 kts 102°
2026-05-07 23:20 41.64315 65.48858 36907 ft 531 kts 102°
2026-05-07 23:20 41.62973 65.58572 36912 ft 531 kts 102°
2026-05-07 23:21 41.61624 65.68269 36906 ft 529 kts 102°
2026-05-07 23:21 41.60271 65.77931 36908 ft 528 kts 102°
2026-05-07 23:22 41.59144 65.85945 36904 ft 529 kts 102°
2026-05-07 23:22 41.57779 65.95593 36900 ft 529 kts 102°
2026-05-07 23:23 41.56398 66.05239 36903 ft 528 kts 102°
2026-05-07 23:23 41.55013 66.14862 36892 ft 527 kts 102°
2026-05-07 23:24 41.53623 66.24473 36897 ft 527 kts 102°
2026-05-07 23:24 41.52227 66.34078 36889 ft 526 kts 103°
2026-05-07 23:25 41.50830 66.43620 36887 ft 527 kts 102°
2026-05-07 23:25 41.49414 66.53235 36889 ft 528 kts 103°
2026-05-07 23:26 41.47991 66.62851 36892 ft 528 kts 102°
2026-05-07 23:26 41.46593 66.72464 36889 ft 528 kts 102°
2026-05-07 23:27 41.44496 66.86875 36888 ft 528 kts 102°
2026-05-07 23:27 41.43082 66.96487 36888 ft 529 kts 102°
2026-05-07 23:28 41.41657 67.06101 36902 ft 529 kts 103°
2026-05-07 23:28 41.40226 67.15702 36899 ft 529 kts 103°
2026-05-07 23:29 41.38785 67.25312 36897 ft 529 kts 103°
2026-05-07 23:29 41.37337 67.34909 36907 ft 528 kts 103°
2026-05-07 23:30 41.35892 67.44431 36903 ft 528 kts 103°
2026-05-07 23:30 41.34430 67.54006 36911 ft 529 kts 103°
2026-05-07 23:31 41.32959 67.63586 36913 ft 528 kts 103°
2026-05-07 23:31 41.31478 67.73178 36916 ft 528 kts 103°
2026-05-07 23:32 41.29990 67.82755 36924 ft 528 kts 103°
2026-05-07 23:32 41.28525 67.92335 36917 ft 529 kts 99°
2026-05-07 23:33 41.27551 68.02034 36916 ft 529 kts 97°
2026-05-07 23:33 41.26684 68.11727 36922 ft 530 kts 97°
2026-05-07 23:34 41.25824 68.21452 36930 ft 530 kts 97°
2026-05-07 23:34 41.24950 68.31173 36933 ft 529 kts 97°
2026-05-07 23:35 41.24063 68.40875 36932 ft 529 kts 97°
2026-05-07 23:35 41.23165 68.50566 36941 ft 528 kts 97°
2026-05-07 23:36 41.22266 68.60192 36937 ft 528 kts 97°
2026-05-07 23:36 41.21355 68.69861 36940 ft 527 kts 97°
2026-05-07 23:37 41.20436 68.79529 36941 ft 527 kts 97°
2026-05-07 23:37 41.19511 68.89199 36953 ft 527 kts 97°
2026-05-07 23:38 41.19071 68.98905 36953 ft 526 kts 92°
2026-05-07 23:38 41.18810 69.08611 36958 ft 526 kts 91°
2026-05-07 23:39 41.18569 69.18330 36967 ft 526 kts 91°
2026-05-07 23:39 41.18217 69.28038 36964 ft 525 kts 95°
2026-05-07 23:40 41.17387 69.37666 36965 ft 525 kts 97°
2026-05-07 23:40 41.16486 69.47224 36978 ft 525 kts 97°
2026-05-07 23:41 41.15640 69.56852 36996 ft 524 kts 96°
2026-05-07 23:41 41.14833 69.66440 37024 ft 522 kts 96°
2026-05-07 23:42 41.14030 69.76007 37023 ft 521 kts 96°
2026-05-07 23:42 41.13215 69.85575 37049 ft 521 kts 96°
2026-05-07 23:43 41.12397 69.95069 37078 ft 521 kts 96°
2026-05-07 23:43 41.11567 70.04619 37078 ft 521 kts 96°
2026-05-07 23:44 41.10727 70.14164 37098 ft 521 kts 96°
2026-05-07 23:44 41.10040 70.23722 37112 ft 520 kts 89°
2026-05-07 23:45 41.10473 70.33283 37111 ft 520 kts 84°
2026-05-07 23:45 41.11163 70.42815 37128 ft 519 kts 83°
2026-05-07 23:46 41.11884 70.52342 37133 ft 518 kts 83°
2026-05-07 23:46 41.12578 70.61856 37140 ft 518 kts 83°
2026-05-07 23:47 41.13248 70.71318 37132 ft 518 kts 83°
2026-05-07 23:47 41.13915 70.80836 37117 ft 518 kts 83°
2026-05-07 23:48 41.14569 70.90354 37099 ft 518 kts 84°
2026-05-07 23:48 41.15214 70.99850 37105 ft 515 kts 84°
2026-05-07 23:49 41.15842 71.09320 37096 ft 515 kts 84°
2026-05-07 23:49 41.16468 71.18787 37078 ft 515 kts 84°
2026-05-07 23:50 41.17085 71.28212 37063 ft 515 kts 84°
2026-05-07 23:50 41.17699 71.37694 37048 ft 515 kts 84°
2026-05-07 23:51 41.18303 71.47169 37044 ft 515 kts 84°
2026-05-07 23:51 41.18901 71.56657 37038 ft 515 kts 84°
2026-05-07 23:52 41.19485 71.66058 37039 ft 513 kts 84°
2026-05-07 23:52 41.20063 71.75497 37045 ft 512 kts 84°
2026-05-07 23:53 41.20636 71.84944 37055 ft 512 kts 84°
2026-05-07 23:53 41.21193 71.94368 37063 ft 512 kts 84°
2026-05-07 23:54 41.21737 72.03723 37070 ft 511 kts 85°
2026-05-07 23:54 41.22277 72.13128 37077 ft 511 kts 85°
2026-05-07 23:55 41.22810 72.22533 37079 ft 511 kts 85°
2026-05-07 23:55 41.23342 72.31936 37073 ft 510 kts 84°
2026-05-07 23:56 41.23869 72.41309 37089 ft 508 kts 84°
2026-05-07 23:56 41.24388 72.50671 37088 ft 508 kts 85°
2026-05-07 23:57 41.24899 72.60045 37102 ft 508 kts 85°
2026-05-07 23:57 41.25398 72.69342 37120 ft 507 kts 85°
2026-05-07 23:58 41.25880 72.78695 37117 ft 507 kts 85°
2026-05-07 23:58 41.26354 72.88039 37123 ft 507 kts 85°
2026-05-07 23:59 41.26824 72.97386 37144 ft 507 kts 85°
2026-05-07 23:59 41.27287 73.06744 37138 ft 507 kts 85°
2026-05-08 00:00 41.27744 73.16098 37147 ft 507 kts 85°
2026-05-08 00:00 41.28192 73.25443 37158 ft 507 kts 85°
2026-05-08 00:01 41.28630 73.34735 37155 ft 507 kts 85°
2026-05-08 00:01 41.29066 73.44085 37168 ft 506 kts 85°
2026-05-08 00:02 41.29491 73.53433 37172 ft 506 kts 85°
2026-05-08 00:02 41.29906 73.62791 37177 ft 506 kts 85°
2026-05-08 00:03 41.30313 73.72133 37183 ft 506 kts 85°
2026-05-08 00:03 41.30717 73.81487 37189 ft 506 kts 85°
2026-05-08 00:04 41.31113 73.90841 37189 ft 506 kts 85°
2026-05-08 00:04 41.31501 74.00196 37190 ft 506 kts 85°
2026-05-08 00:05 41.32048 74.09523 37191 ft 505 kts 82°
2026-05-08 00:05 41.32783 74.18818 37192 ft 505 kts 82°
2026-05-08 00:06 41.33379 74.26536 37195 ft 505 kts 83°
2026-05-08 00:06 41.34165 74.37416 37201 ft 505 kts 83°
2026-05-08 00:07 41.34701 74.45142 37191 ft 504 kts 83°
2026-05-08 00:07 41.35439 74.55944 37200 ft 503 kts 83°
2026-05-08 00:08 41.35963 74.63659 37196 ft 503 kts 83°
2026-05-08 00:08 41.36588 74.72930 37199 ft 503 kts 83°
2026-05-08 00:09 41.37205 74.82213 37200 ft 503 kts 83°
2026-05-08 00:09 41.37814 74.91502 37198 ft 503 kts 83°
2026-05-08 00:10 41.38414 75.00775 37200 ft 503 kts 83°
2026-05-08 00:10 41.39006 75.10070 37209 ft 502 kts 83°
2026-05-08 00:11 41.39590 75.19326 37203 ft 501 kts 83°
2026-05-08 00:11 41.40167 75.28576 37202 ft 501 kts 83°
2026-05-08 00:12 41.40732 75.37763 37209 ft 501 kts 83°
2026-05-08 00:12 41.41294 75.47014 37205 ft 500 kts 83°
2026-05-08 00:13 41.41846 75.56248 37209 ft 500 kts 83°
2026-05-08 00:13 41.42392 75.65497 37204 ft 500 kts 83°
2026-05-08 00:14 41.42930 75.74739 37199 ft 500 kts 83°
2026-05-08 00:14 41.43463 75.83976 37197 ft 499 kts 83°
2026-05-08 00:15 41.43984 75.93152 37214 ft 499 kts 83°
2026-05-08 00:15 41.44501 76.02388 37198 ft 499 kts 83°
2026-05-08 00:16 41.45008 76.11619 37222 ft 500 kts 83°
2026-05-08 00:16 41.45512 76.20865 37215 ft 499 kts 83°
2026-05-08 00:17 41.46009 76.30091 37227 ft 499 kts 83°
2026-05-08 00:17 41.46495 76.39320 37240 ft 499 kts 83°
2026-05-08 00:18 41.46975 76.48551 37241 ft 499 kts 84°
2026-05-08 00:18 41.47445 76.57774 37251 ft 498 kts 83°
2026-05-08 00:19 41.47908 76.66949 37258 ft 498 kts 83°
2026-05-08 00:19 41.48366 76.76174 37253 ft 498 kts 84°
2026-05-08 00:20 41.48816 76.85415 37265 ft 498 kts 84°
2026-05-08 00:20 41.49256 76.94653 37283 ft 498 kts 83°
2026-05-08 00:21 41.49689 77.03861 37275 ft 496 kts 83°
2026-05-08 00:21 41.50119 77.13054 37281 ft 496 kts 83°
2026-05-08 00:22 41.50535 77.22192 37291 ft 496 kts 84°
2026-05-08 00:22 41.50944 77.31378 37298 ft 496 kts 83°
2026-05-08 00:23 41.51348 77.40569 37306 ft 496 kts 83°
2026-05-08 00:23 41.51744 77.49748 37307 ft 496 kts 84°
2026-05-08 00:24 41.52132 77.58932 37313 ft 496 kts 84°
2026-05-08 00:24 41.52513 77.68114 37314 ft 495 kts 84°
2026-05-08 00:25 41.52887 77.77293 37313 ft 495 kts 84°
2026-05-08 00:25 41.53253 77.86461 37316 ft 495 kts 84°
2026-05-08 00:26 41.53609 77.95579 37318 ft 495 kts 84°
2026-05-08 00:26 41.53961 78.04773 37314 ft 495 kts 84°
2026-05-08 00:27 41.54307 78.13949 37308 ft 495 kts 84°
2026-05-08 00:27 41.54648 78.23147 37319 ft 496 kts 84°
2026-05-08 00:28 41.54976 78.32332 37311 ft 495 kts 84°
2026-05-08 00:28 41.55294 78.41521 37307 ft 495 kts 84°
2026-05-08 00:29 41.55608 78.50652 37310 ft 495 kts 84°
2026-05-08 00:29 41.55920 78.59838 37309 ft 495 kts 84°
2026-05-08 00:30 41.56220 78.69032 37299 ft 495 kts 85°
2026-05-08 00:30 41.56510 78.78226 37293 ft 496 kts 85°
2026-05-08 00:31 41.55813 78.87417 37259 ft 501 kts 100°
2026-05-08 00:31 41.54151 78.96455 37247 ft 502 kts 102°
2026-05-08 00:32 41.52322 79.05460 37235 ft 503 kts 103°
2026-05-08 00:32 41.50499 79.14410 37167 ft 503 kts 103°
2026-05-08 00:33 41.48682 79.23426 37170 ft 502 kts 103°
2026-05-08 00:33 41.46872 79.32419 37144 ft 502 kts 103°
2026-05-08 00:34 41.45056 79.41405 37127 ft 501 kts 103°
2026-05-08 00:34 41.43235 79.50373 37114 ft 501 kts 103°
2026-05-08 00:35 41.41420 79.59264 37115 ft 501 kts 103°
2026-05-08 00:35 41.39585 79.68215 37102 ft 501 kts 104°
2026-05-08 00:36 41.37744 79.77151 37100 ft 501 kts 104°
2026-05-08 00:36 41.35897 79.86084 37102 ft 500 kts 104°
2026-05-08 00:37 41.34041 79.95016 37097 ft 500 kts 104°
2026-05-08 00:38 41.31247 80.08389 37091 ft 500 kts 104°
2026-05-08 00:38 41.29375 80.17306 37107 ft 500 kts 104°
2026-05-08 00:39 41.27497 80.26217 37089 ft 500 kts 104°
2026-05-08 00:39 41.25626 80.35064 37080 ft 500 kts 104°
2026-05-08 00:40 41.23724 80.43964 37072 ft 500 kts 104°
2026-05-08 00:40 41.21809 80.52843 37076 ft 500 kts 104°
2026-05-08 00:41 41.19890 80.61719 37087 ft 500 kts 104°
2026-05-08 00:41 41.17967 80.70584 37067 ft 499 kts 104°
2026-05-08 00:42 41.16044 80.79421 37086 ft 498 kts 104°
2026-05-08 00:42 41.14114 80.88255 37089 ft 498 kts 104°
2026-05-08 00:43 41.12179 80.97073 37077 ft 497 kts 104°
2026-05-08 00:43 41.10241 81.05867 37085 ft 496 kts 104°
2026-05-08 00:44 41.08308 81.14603 37080 ft 496 kts 104°
2026-05-08 00:44 41.06356 81.23392 37085 ft 496 kts 104°
2026-05-08 00:45 41.04398 81.32172 37081 ft 496 kts 104°
2026-05-08 00:45 41.02440 81.40917 37086 ft 495 kts 104°
2026-05-08 00:46 41.00475 81.49651 37083 ft 494 kts 104°
2026-05-08 00:46 40.98522 81.58315 37084 ft 494 kts 104°
2026-05-08 00:47 40.96550 81.67025 37087 ft 494 kts 104°
2026-05-08 00:47 40.94786 81.75784 37082 ft 492 kts 101°
2026-05-08 00:48 40.93194 81.84577 37087 ft 492 kts 101°
2026-05-08 00:48 40.91573 81.93362 37086 ft 492 kts 101°
2026-05-08 00:49 40.89908 82.02137 37088 ft 492 kts 102°
2026-05-08 00:49 40.88218 82.10915 37089 ft 492 kts 102°
2026-05-08 00:50 40.86524 82.19674 37088 ft 492 kts 102°
2026-05-08 00:50 40.84824 82.28430 37089 ft 492 kts 102°
2026-05-08 00:51 40.83130 82.37129 37089 ft 492 kts 102°
2026-05-08 00:51 40.81418 82.45880 37089 ft 491 kts 102°
2026-05-08 00:52 40.79703 82.54613 37089 ft 491 kts 102°
2026-05-08 00:52 40.77981 82.63340 37088 ft 491 kts 102°
2026-05-08 00:53 40.76544 82.70590 37087 ft 491 kts 102°
2026-05-08 00:53 40.74810 82.79308 37094 ft 491 kts 102°
2026-05-08 00:54 40.73072 82.88004 37087 ft 490 kts 102°
2026-05-08 00:54 40.71329 82.96690 37089 ft 490 kts 102°
2026-05-08 00:55 40.69579 83.05379 37088 ft 489 kts 102°
2026-05-08 00:55 40.67828 83.14036 37089 ft 489 kts 102°
2026-05-08 00:56 40.66079 83.22643 37087 ft 489 kts 103°
2026-05-08 00:56 40.64316 83.31285 37089 ft 488 kts 103°
2026-05-08 00:57 40.62544 83.39929 37089 ft 488 kts 103°
2026-05-08 00:57 40.60768 83.48559 37089 ft 488 kts 103°
2026-05-08 00:58 40.58984 83.57198 37090 ft 488 kts 103°
2026-05-08 00:58 40.57208 83.65756 37089 ft 487 kts 103°
2026-05-08 00:59 40.55417 83.74355 37084 ft 487 kts 103°
2026-05-08 00:59 40.53621 83.82937 37087 ft 487 kts 103°
2026-05-08 01:00 40.51818 83.91523 37095 ft 487 kts 103°
2026-05-08 01:00 40.50044 84.00100 37089 ft 487 kts 103°
2026-05-08 01:01 40.48315 84.08696 37086 ft 486 kts 103°
2026-05-08 01:01 40.46592 84.17231 37086 ft 487 kts 103°
2026-05-08 01:02 40.44844 84.25808 37085 ft 487 kts 103°
2026-05-08 01:02 40.43083 84.34390 37087 ft 487 kts 103°
2026-05-08 01:03 40.41315 84.42966 37089 ft 487 kts 103°
2026-05-08 01:03 40.39539 84.51548 37089 ft 487 kts 103°
2026-05-08 01:04 40.37758 84.60119 37088 ft 487 kts 103°
2026-05-08 01:04 40.35973 84.68679 37093 ft 487 kts 103°
2026-05-08 01:05 40.34175 84.77265 37089 ft 488 kts 103°
2026-05-08 01:05 40.32379 84.85807 37088 ft 489 kts 104°
2026-05-08 01:06 40.30565 84.94399 37089 ft 489 kts 104°
2026-05-08 01:06 40.28742 85.02999 37089 ft 489 kts 104°
2026-05-08 01:07 40.26915 85.11586 37085 ft 489 kts 104°
2026-05-08 01:07 40.25083 85.20158 37086 ft 489 kts 104°
2026-05-08 01:08 40.23240 85.28743 37088 ft 489 kts 104°
2026-05-08 01:08 40.21405 85.37264 37089 ft 489 kts 104°
2026-05-08 01:09 40.19553 85.45827 37091 ft 489 kts 104°
2026-05-08 01:09 40.17695 85.54386 37088 ft 489 kts 104°
2026-05-08 01:10 40.15830 85.62944 37085 ft 490 kts 104°
2026-05-08 01:10 40.13955 85.71510 37086 ft 490 kts 104°
2026-05-08 01:11 40.12069 85.80090 37089 ft 491 kts 104°
2026-05-08 01:11 40.10181 85.88653 37091 ft 491 kts 104°
2026-05-08 01:12 40.08285 85.97220 37085 ft 491 kts 105°
2026-05-08 01:12 40.06301 86.05699 37085 ft 491 kts 108°
2026-05-08 01:13 40.03966 86.14089 37088 ft 491 kts 109°
2026-05-08 01:13 40.01594 86.22454 37089 ft 491 kts 109°
2026-05-08 01:14 39.99267 86.30836 37088 ft 491 kts 108°
2026-05-08 01:14 39.96975 86.39182 37093 ft 491 kts 108°
2026-05-08 01:15 39.94670 86.47573 37093 ft 492 kts 109°
2026-05-08 01:15 39.92353 86.55964 37088 ft 492 kts 109°
2026-05-08 01:16 39.90030 86.64352 37086 ft 492 kts 109°
2026-05-08 01:16 39.87700 86.72738 37088 ft 491 kts 109°
2026-05-08 01:17 39.85369 86.81099 37086 ft 491 kts 109°
2026-05-08 01:17 39.83030 86.89457 37086 ft 491 kts 109°
2026-05-08 01:18 39.80685 86.97811 37084 ft 492 kts 109°
2026-05-08 01:18 39.78347 87.06113 37083 ft 492 kts 109°
2026-05-08 01:19 39.75989 87.14462 37084 ft 492 kts 109°
2026-05-08 01:19 39.73619 87.22821 37083 ft 493 kts 109°
2026-05-08 01:20 39.71238 87.31198 37083 ft 493 kts 109°
2026-05-08 01:20 39.68853 87.39554 37083 ft 493 kts 109°
2026-05-08 01:21 39.66465 87.47901 37083 ft 493 kts 109°
2026-05-08 01:21 39.64069 87.56246 37086 ft 493 kts 109°
2026-05-08 01:22 39.61669 87.64582 37083 ft 493 kts 109°
2026-05-08 01:22 39.59276 87.72862 37086 ft 493 kts 109°
2026-05-08 01:23 39.56861 87.81194 37082 ft 494 kts 109°
2026-05-08 01:23 39.54439 87.89526 37081 ft 494 kts 110°
2026-05-08 01:24 39.52008 87.97861 37083 ft 495 kts 110°
2026-05-08 01:24 39.49570 88.06195 37081 ft 495 kts 110°
2026-05-08 01:25 39.47120 88.14534 37078 ft 495 kts 110°
2026-05-08 01:25 39.44668 88.22865 37079 ft 495 kts 110°
2026-05-08 01:26 39.42211 88.31187 37087 ft 495 kts 110°
2026-05-08 01:26 39.39761 88.39457 37079 ft 495 kts 110°
2026-05-08 01:27 39.37288 88.47779 37075 ft 495 kts 110°
2026-05-08 01:27 39.34810 88.56092 37075 ft 496 kts 110°
2026-05-08 01:28 39.32319 88.64423 37076 ft 497 kts 110°
2026-05-08 01:28 39.29821 88.72750 37084 ft 497 kts 110°
2026-05-08 01:29 39.27331 88.81025 37088 ft 497 kts 110°
2026-05-08 01:29 39.24820 88.89347 37094 ft 497 kts 110°
2026-05-08 01:30 39.22302 88.97663 37090 ft 498 kts 110°
2026-05-08 01:30 39.19778 89.05975 37118 ft 498 kts 110°
2026-05-08 01:31 39.17245 89.14290 37120 ft 498 kts 110°
2026-05-08 01:31 39.14721 89.22554 37117 ft 498 kts 110°
2026-05-08 01:32 39.12175 89.30860 37135 ft 499 kts 111°
2026-05-08 01:32 39.09617 89.39184 37195 ft 500 kts 111°
2026-05-08 01:33 39.07049 89.47513 37196 ft 500 kts 111°
2026-05-08 01:33 39.04478 89.55826 37215 ft 500 kts 111°
2026-05-08 01:34 39.01914 89.64090 37261 ft 500 kts 111°
2026-05-08 01:34 38.99328 89.72403 37275 ft 500 kts 111°
2026-05-08 01:35 38.96736 89.80709 37274 ft 500 kts 111°
2026-05-08 01:35 38.94138 89.89008 37278 ft 500 kts 111°
2026-05-08 01:36 38.91536 89.97297 37314 ft 500 kts 111°
2026-05-08 01:36 38.88929 90.05576 37334 ft 501 kts 111°
2026-05-08 01:37 38.86309 90.13871 37334 ft 501 kts 111°
2026-05-08 01:37 38.83700 90.22112 37368 ft 502 kts 111°
2026-05-08 01:38 38.81069 90.30393 37367 ft 501 kts 111°
2026-05-08 01:38 38.78434 90.38671 37383 ft 501 kts 111°
2026-05-08 01:39 38.75786 90.46960 37380 ft 502 kts 111°
2026-05-08 01:39 38.73132 90.55243 37382 ft 502 kts 111°
2026-05-08 01:40 38.70473 90.63516 37377 ft 502 kts 111°
2026-05-08 01:40 38.67826 90.71748 37376 ft 502 kts 111°
2026-05-08 01:41 38.65416 90.80136 37367 ft 502 kts 108°
2026-05-08 01:41 38.63524 90.87176 37371 ft 504 kts 108°
2026-05-08 01:42 38.61214 90.95642 37358 ft 504 kts 109°
2026-05-08 01:42 38.58856 91.04097 37357 ft 504 kts 109°
2026-05-08 01:43 38.56478 91.12531 37345 ft 504 kts 109°
2026-05-08 01:43 38.54090 91.20970 37343 ft 505 kts 110°
2026-05-08 01:44 38.51697 91.29404 37338 ft 505 kts 110°
2026-05-08 01:44 38.49311 91.37792 37335 ft 505 kts 110°
2026-05-08 01:45 38.46908 91.46215 37336 ft 505 kts 110°
2026-05-08 01:45 38.44495 91.54647 37333 ft 505 kts 110°
2026-05-08 01:46 38.42074 91.63078 37331 ft 507 kts 110°
2026-05-08 01:46 38.39641 91.71521 37326 ft 508 kts 110°
2026-05-08 01:47 38.37193 91.79992 37330 ft 509 kts 111°
2026-05-08 01:47 38.34753 91.88410 37325 ft 509 kts 111°
2026-05-08 01:48 38.31047 92.01140 37323 ft 513 kts 111°
2026-05-08 01:48 38.28557 92.09662 37322 ft 513 kts 111°
2026-05-08 01:49 38.26063 92.18169 37326 ft 513 kts 111°
2026-05-08 01:49 38.23560 92.26683 37328 ft 513 kts 111°
2026-05-08 01:50 38.21064 92.35144 37328 ft 515 kts 112°
2026-05-08 01:50 38.18538 92.43680 37330 ft 515 kts 112°
2026-05-08 01:51 38.15999 92.52201 37308 ft 515 kts 114°
2026-05-08 01:51 38.13015 92.60498 37325 ft 517 kts 118°
2026-05-08 01:52 38.09814 92.68688 37322 ft 518 kts 119°
2026-05-08 01:52 38.06654 92.76927 37325 ft 520 kts 118°
2026-05-08 01:53 38.03561 92.85153 37319 ft 520 kts 118°
2026-05-08 01:53 38.00458 92.93441 37319 ft 520 kts 118°
2026-05-08 01:54 37.97347 93.01726 37319 ft 520 kts 118°
2026-05-08 01:54 37.94229 93.09998 37320 ft 521 kts 119°
2026-05-08 01:55 37.91093 93.18290 37300 ft 522 kts 119°
2026-05-08 01:55 37.87960 93.26548 37314 ft 524 kts 119°
2026-05-08 01:56 37.84799 93.34864 37314 ft 524 kts 120°
2026-05-08 01:56 37.81632 93.43173 37306 ft 524 kts 120°
2026-05-08 01:57 37.78459 93.51477 37301 ft 524 kts 120°
2026-05-08 01:57 37.75279 93.59774 37303 ft 524 kts 120°
2026-05-08 01:58 37.72095 93.68058 37303 ft 524 kts 120°
2026-05-08 01:58 37.68905 93.76332 37303 ft 524 kts 120°
2026-05-08 01:59 37.65711 93.84601 37296 ft 525 kts 120°
2026-05-08 01:59 37.62517 93.92848 37304 ft 527 kts 120°
2026-05-08 02:00 37.59287 94.01159 37294 ft 527 kts 121°
2026-05-08 02:00 37.56052 94.09460 37296 ft 527 kts 121°
2026-05-08 02:01 37.52812 94.17758 37290 ft 527 kts 121°
2026-05-08 02:01 37.49564 94.26057 37290 ft 528 kts 121°
2026-05-08 02:02 37.46304 94.34360 37287 ft 528 kts 121°
2026-05-08 02:02 37.43041 94.42647 37287 ft 529 kts 121°
2026-05-08 02:03 37.39773 94.50929 37289 ft 528 kts 121°
2026-05-08 02:03 37.36515 94.59163 37283 ft 529 kts 121°
2026-05-08 02:04 37.33226 94.67449 37292 ft 530 kts 121°
2026-05-08 02:04 37.29925 94.75746 37289 ft 531 kts 121°
2026-05-08 02:05 37.26618 94.84039 37288 ft 531 kts 122°
2026-05-08 02:05 37.23306 94.92321 37286 ft 531 kts 122°
2026-05-08 02:06 37.20004 95.00558 37292 ft 531 kts 122°
2026-05-08 02:06 37.16678 95.08831 37292 ft 531 kts 122°
2026-05-08 02:07 37.13346 95.17095 37294 ft 531 kts 122°
2026-05-08 02:07 37.10010 95.25349 37285 ft 530 kts 122°
2026-05-08 02:08 37.06673 95.33587 37290 ft 530 kts 122°
2026-05-08 02:08 37.03349 95.41768 37290 ft 531 kts 122°
2026-05-08 02:09 36.99994 95.50007 37282 ft 531 kts 123°
2026-05-08 02:09 36.96690 95.58294 37281 ft 532 kts 121°
2026-05-08 02:10 36.93435 95.66621 37278 ft 532 kts 121°
2026-05-08 02:10 36.90192 95.74882 37278 ft 533 kts 121°
2026-05-08 02:11 36.86904 95.83197 37271 ft 533 kts 122°
2026-05-08 02:11 36.83615 95.91483 37258 ft 533 kts 122°
2026-05-08 02:12 36.80315 95.99773 37269 ft 532 kts 122°
2026-05-08 02:12 36.77012 96.08054 37272 ft 532 kts 122°
2026-05-08 02:13 36.73755 96.16276 37268 ft 532 kts 121°
2026-05-08 02:13 36.70474 96.24566 37265 ft 532 kts 121°
2026-05-08 02:14 36.67194 96.32825 37263 ft 532 kts 121°
2026-05-08 02:14 36.63897 96.41097 37262 ft 532 kts 121°
2026-05-08 02:15 36.60598 96.49351 37262 ft 532 kts 121°
2026-05-08 02:15 36.57306 96.57562 37260 ft 534 kts 121°
2026-05-08 02:16 36.54019 96.65833 37261 ft 533 kts 121°
2026-05-08 02:16 36.50771 96.74123 37259 ft 533 kts 121°
2026-05-08 02:17 36.47519 96.82405 37260 ft 533 kts 121°
2026-05-08 02:17 36.44251 96.90679 37266 ft 534 kts 121°
2026-05-08 02:18 36.40966 96.98966 37267 ft 535 kts 121°
2026-05-08 02:18 36.37673 97.07251 37266 ft 535 kts 121°
2026-05-08 02:19 36.34376 97.15527 37271 ft 535 kts 121°
2026-05-08 02:19 36.31094 97.23743 37277 ft 535 kts 121°
2026-05-08 02:20 36.27784 97.32007 37284 ft 535 kts 121°
2026-05-08 02:20 36.24467 97.40270 37282 ft 535 kts 121°
2026-05-08 02:21 36.21149 97.48516 37299 ft 534 kts 121°
2026-05-08 02:21 36.17827 97.56747 37299 ft 534 kts 121°
2026-05-08 02:22 36.14518 97.64932 37308 ft 536 kts 121°
2026-05-08 02:22 36.11278 97.73257 37311 ft 537 kts 120°
2026-05-08 02:23 36.08082 97.81609 37325 ft 537 kts 120°
2026-05-08 02:23 36.04870 97.89947 37348 ft 537 kts 120°
2026-05-08 02:24 36.01638 97.98269 37354 ft 537 kts 120°
2026-05-08 02:24 35.98397 98.06580 37357 ft 537 kts 120°
2026-05-08 02:25 35.95160 98.14866 37349 ft 534 kts 120°
2026-05-08 02:25 35.91936 98.23074 37371 ft 534 kts 120°
2026-05-08 02:26 35.88698 98.31319 37364 ft 534 kts 120°
2026-05-08 02:26 35.85459 98.39549 37353 ft 534 kts 120°
2026-05-08 02:27 35.82204 98.47811 37357 ft 535 kts 120°
2026-05-08 02:27 35.78942 98.56050 37342 ft 534 kts 120°
2026-05-08 02:28 35.75674 98.64281 37341 ft 534 kts 120°
2026-05-08 02:28 35.72425 98.72449 37323 ft 534 kts 120°
2026-05-08 02:29 35.69141 98.80675 37314 ft 536 kts 119°
2026-05-08 02:29 35.65827 98.88948 37316 ft 544 kts 120°
2026-05-08 02:30 35.62465 98.97327 37318 ft 547 kts 120°
2026-05-08 02:30 35.59097 99.05714 37317 ft 546 kts 120°
2026-05-08 02:31 35.56295 99.12673 37312 ft 547 kts 120°
2026-05-08 02:31 35.52366 99.22403 37313 ft 547 kts 120°
2026-05-08 02:32 35.49525 99.29419 37311 ft 548 kts 120°
2026-05-08 02:32 35.46127 99.37792 37314 ft 548 kts 120°
2026-05-08 02:33 35.42721 99.46159 37314 ft 549 kts 120°
2026-05-08 02:33 35.39324 99.54476 37310 ft 548 kts 120°
2026-05-08 02:34 35.35910 99.62830 37312 ft 548 kts 120°
2026-05-08 02:34 35.32495 99.71175 37313 ft 547 kts 120°
2026-05-08 02:35 35.29071 99.79498 37311 ft 548 kts 120°
2026-05-08 02:35 35.25647 99.87837 37305 ft 548 kts 120°
2026-05-08 02:36 35.22229 99.96150 37307 ft 547 kts 120°
2026-05-08 02:36 35.18780 100.04441 37296 ft 547 kts 120°
2026-05-08 02:37 35.15322 100.12740 37301 ft 548 kts 120°
2026-05-08 02:37 35.11868 100.21030 37292 ft 547 kts 120°
2026-05-08 02:38 35.08443 100.29252 37298 ft 546 kts 120°
2026-05-08 02:38 35.04979 100.37525 37290 ft 546 kts 120°
2026-05-08 02:39 35.01519 100.45762 37297 ft 545 kts 120°
2026-05-08 02:39 34.98057 100.53992 37306 ft 545 kts 120°
2026-05-08 02:40 34.94594 100.62227 37305 ft 546 kts 120°
2026-05-08 02:40 34.91151 100.70388 37305 ft 545 kts 120°
2026-05-08 02:41 34.87676 100.78583 37305 ft 545 kts 120°
2026-05-08 02:41 34.84195 100.86780 37309 ft 545 kts 120°
2026-05-08 02:42 34.80712 100.94969 37304 ft 545 kts 120°
2026-05-08 02:42 34.77224 101.03147 37300 ft 544 kts 120°
2026-05-08 02:43 34.73734 101.11306 37276 ft 543 kts 120°
2026-05-08 02:43 34.70247 101.19437 37296 ft 542 kts 120°
2026-05-08 02:44 34.66759 101.27560 37295 ft 542 kts 120°
2026-05-08 02:44 34.63264 101.35678 37299 ft 542 kts 120°
2026-05-08 02:45 34.59762 101.43787 37301 ft 542 kts 120°
2026-05-08 02:45 34.56255 101.51888 37300 ft 543 kts 120°
2026-05-08 02:46 34.52762 101.59943 37293 ft 542 kts 120°
2026-05-08 02:46 34.49245 101.68035 37298 ft 543 kts 120°
2026-05-08 02:47 34.45720 101.76123 37300 ft 543 kts 120°
2026-05-08 02:47 34.42187 101.84210 37301 ft 543 kts 120°
2026-05-08 02:48 34.38654 101.92282 37305 ft 541 kts 120°
2026-05-08 02:48 34.35124 102.00326 37307 ft 541 kts 120°
2026-05-08 02:49 34.31597 102.08352 37303 ft 539 kts 120°
2026-05-08 02:49 34.28064 102.16360 37304 ft 539 kts 121°
2026-05-08 02:50 34.24530 102.24354 37298 ft 539 kts 120°
2026-05-08 02:50 34.21015 102.32290 37298 ft 539 kts 121°
2026-05-08 02:51 34.17482 102.40281 37296 ft 539 kts 120°
2026-05-08 02:51 34.14044 102.48333 37284 ft 540 kts 119°
2026-05-08 02:52 34.10620 102.56413 37284 ft 540 kts 119°
2026-05-08 02:52 34.07184 102.64472 37266 ft 540 kts 119°
2026-05-08 02:53 34.03710 102.72559 37276 ft 543 kts 120°
2026-05-08 02:53 34.00240 102.80607 37272 ft 545 kts 120°
2026-05-08 02:54 33.96734 102.88720 37270 ft 547 kts 120°
2026-05-08 02:54 33.93216 102.96845 37265 ft 547 kts 120°
2026-05-08 02:55 33.87951 103.08976 37268 ft 546 kts 120°
2026-05-08 02:56 33.84424 103.17089 37262 ft 546 kts 120°
2026-05-08 02:56 33.80882 103.25188 37270 ft 547 kts 121°
2026-05-08 02:57 33.77330 103.33299 37275 ft 548 kts 120°
2026-05-08 02:57 33.73802 103.41349 37252 ft 547 kts 121°
2026-05-08 02:58 33.70227 103.49474 37275 ft 552 kts 121°
2026-05-08 02:58 33.66642 103.57633 37284 ft 553 kts 121°
2026-05-08 02:59 33.63038 103.65816 37289 ft 554 kts 121°
2026-05-08 02:59 33.59434 103.73991 37287 ft 554 kts 121°
2026-05-08 03:00 33.55816 103.82149 37279 ft 553 kts 121°
2026-05-08 03:00 33.52213 103.90239 37287 ft 554 kts 122°
2026-05-08 03:01 33.48568 103.98388 37282 ft 555 kts 122°
2026-05-08 03:01 33.44928 104.06564 37282 ft 557 kts 121°
2026-05-08 03:02 33.41275 104.14736 37275 ft 556 kts 122°
2026-05-08 03:02 33.37369 104.22658 37255 ft 549 kts 133°
2026-05-08 03:03 33.31905 104.28810 37273 ft 532 kts 154°
2026-05-08 03:03 33.25391 104.32796 37286 ft 525 kts 162°
2026-05-08 03:04 33.18699 104.36370 37265 ft 527 kts 162°
2026-05-08 03:04 33.12030 104.39851 37269 ft 526 kts 163°
2026-05-08 03:05 33.05336 104.43354 37289 ft 524 kts 163°
2026-05-08 03:05 32.98670 104.46890 37275 ft 524 kts 162°
2026-05-08 03:06 32.92019 104.50436 37267 ft 523 kts 162°
2026-05-08 03:06 32.85364 104.53970 37271 ft 523 kts 162°
2026-05-08 03:07 32.78687 104.57382 37276 ft 518 kts 168°
2026-05-08 03:07 32.75248 104.58492 37278 ft 507 kts 177°
2026-05-08 03:07 32.71781 104.58994 37281 ft 499 kts 183°
2026-05-08 03:08 32.64859 104.59413 37281 ft 497 kts 186°
2026-05-08 03:08 32.57985 104.59658 37285 ft 498 kts 186°
2026-05-08 03:09 32.51052 104.59940 37282 ft 499 kts 186°
2026-05-08 03:09 32.44111 104.60250 37278 ft 497 kts 186°
2026-05-08 03:10 32.37192 104.60594 37282 ft 498 kts 185°
2026-05-08 03:10 32.30253 104.60976 37286 ft 499 kts 185°
2026-05-08 03:11 32.23353 104.61364 37276 ft 499 kts 186°
2026-05-08 03:11 32.16400 104.61739 37264 ft 501 kts 186°
2026-05-08 03:12 32.09435 104.62121 37270 ft 500 kts 186°
2026-05-08 03:12 32.02499 104.62507 37231 ft 499 kts 186°
2026-05-08 03:13 31.95558 104.62885 37247 ft 498 kts 186°
2026-05-08 03:13 31.88676 104.63252 37247 ft 498 kts 187°
2026-05-08 03:14 31.81752 104.63623 37234 ft 498 kts 186°
2026-05-08 03:14 31.74828 104.63992 37215 ft 497 kts 187°
2026-05-08 03:15 31.67926 104.64270 37225 ft 495 kts 187°
2026-05-08 03:15 31.61038 104.64519 37225 ft 495 kts 188°
2026-05-08 03:16 31.54139 104.64778 37224 ft 495 kts 187°
2026-05-08 03:16 31.47246 104.65048 37205 ft 495 kts 187°
2026-05-08 03:17 31.40402 104.65319 37214 ft 494 kts 187°
2026-05-08 03:17 31.33522 104.65592 37214 ft 494 kts 187°
2026-05-08 03:18 31.26643 104.65863 37214 ft 494 kts 187°
2026-05-08 03:18 31.19767 104.66132 37203 ft 494 kts 188°
2026-05-08 03:19 31.12902 104.66402 37212 ft 493 kts 188°
2026-05-08 03:19 31.06042 104.66670 37213 ft 493 kts 188°
2026-05-08 03:20 31.00329 104.67019 37216 ft 497 kts 185°
2026-05-08 03:20 30.93417 104.67852 37201 ft 499 kts 184°
2026-05-08 03:21 30.86516 104.68735 37220 ft 498 kts 184°
2026-05-08 03:21 30.79630 104.69561 37216 ft 497 kts 184°
2026-05-08 03:22 30.72783 104.70338 37226 ft 497 kts 184°
2026-05-08 03:22 30.65903 104.71109 37213 ft 496 kts 185°
2026-05-08 03:23 30.59020 104.71878 37225 ft 496 kts 185°
2026-05-08 03:23 30.52133 104.72655 37228 ft 497 kts 185°
2026-05-08 03:24 30.45293 104.73412 37229 ft 496 kts 185°
2026-05-08 03:24 30.38399 104.74174 37228 ft 497 kts 185°
2026-05-08 03:25 30.31508 104.74942 37228 ft 497 kts 185°
2026-05-08 03:25 30.24622 104.75710 37227 ft 497 kts 185°
2026-05-08 03:26 30.17772 104.76468 37226 ft 497 kts 185°
2026-05-08 03:26 30.10891 104.77227 37205 ft 497 kts 185°
2026-05-08 03:27 30.03996 104.77986 37227 ft 497 kts 185°
2026-05-08 03:27 29.97105 104.78755 37224 ft 497 kts 184°
2026-05-08 03:28 29.90219 104.79520 37224 ft 497 kts 185°
2026-05-08 03:28 29.83335 104.80271 37182 ft 497 kts 185°
2026-05-08 03:29 29.76442 104.81022 37216 ft 497 kts 185°
2026-05-08 03:29 29.69590 104.81778 37215 ft 497 kts 184°
2026-05-08 03:30 29.59255 104.82920 37210 ft 497 kts 185°
2026-05-08 03:31 29.45519 104.84425 37204 ft 497 kts 185°
2026-05-08 03:32 29.35173 104.85691 37202 ft 505 kts 179°
2026-05-08 03:32 29.31736 104.86740 37196 ft 518 kts 170°
2026-05-08 03:32 29.28352 104.88237 37194 ft 523 kts 167°
2026-05-08 03:33 29.21631 104.91573 37195 ft 527 kts 165°
2026-05-08 03:33 29.14982 104.94999 37190 ft 527 kts 165°
2026-05-08 03:34 29.08286 104.98427 37191 ft 527 kts 166°
2026-05-08 03:34 29.01580 105.01824 37189 ft 527 kts 166°
2026-05-08 03:35 28.94869 105.05202 37176 ft 527 kts 166°
2026-05-08 03:35 28.88143 105.08578 37188 ft 527 kts 166°
2026-05-08 03:36 28.81457 105.11912 37187 ft 527 kts 166°
2026-05-08 03:36 28.74752 105.15329 37187 ft 531 kts 163°
2026-05-08 03:37 28.68187 105.19307 37188 ft 535 kts 160°
2026-05-08 03:37 28.61676 105.23416 37187 ft 534 kts 160°
2026-05-08 03:38 28.55153 105.27440 37190 ft 533 kts 161°
2026-05-08 03:38 28.48604 105.31403 37196 ft 533 kts 161°
2026-05-08 03:39 28.42056 105.35342 37175 ft 533 kts 161°
2026-05-08 03:39 28.35502 105.39279 37175 ft 532 kts 161°
2026-05-08 03:40 28.28959 105.43210 37191 ft 532 kts 161°
2026-05-08 03:40 28.22465 105.47106 37202 ft 531 kts 161°
2026-05-08 03:41 28.15932 105.51018 37202 ft 531 kts 161°
2026-05-08 03:41 28.09387 105.54929 37208 ft 531 kts 161°
2026-05-08 03:41 28.06049 105.56616 37209 ft 520 kts 169°
2026-05-08 03:42 28.02607 105.57711 37199 ft 508 kts 178°
2026-05-08 03:42 27.95664 105.59024 37211 ft 504 kts 180°
2026-05-08 03:43 27.88726 105.60088 37218 ft 504 kts 181°
2026-05-08 03:43 27.81774 105.61303 37203 ft 511 kts 175°
2026-05-08 03:43 27.78394 105.62533 37207 ft 523 kts 166°
2026-05-08 03:44 27.75072 105.64282 37210 ft 529 kts 161°
2026-05-08 03:44 27.68542 105.68175 37217 ft 531 kts 159°
2026-05-08 03:45 27.62012 105.72017 37218 ft 527 kts 162°
2026-05-08 03:45 27.55388 105.75554 37210 ft 526 kts 163°
2026-05-08 03:46 27.48754 105.79049 37226 ft 526 kts 163°
2026-05-08 03:46 27.42118 105.82596 37225 ft 528 kts 162°
2026-05-08 03:47 27.35497 105.86168 37224 ft 528 kts 162°
2026-05-08 03:47 27.28868 105.89736 37227 ft 528 kts 162°
2026-05-08 03:48 27.22248 105.93296 37232 ft 528 kts 162°
2026-05-08 03:48 27.15665 105.96831 37231 ft 528 kts 162°
2026-05-08 03:49 27.09045 106.00395 37225 ft 529 kts 161°
2026-05-08 03:49 27.02951 106.05242 37231 ft 549 kts 141°
2026-05-08 03:50 26.98200 106.11609 37224 ft 558 kts 133°
2026-05-08 03:50 26.93549 106.18577 37231 ft 559 kts 132°
2026-05-08 03:51 26.88915 106.25586 37237 ft 559 kts 132°
2026-05-08 03:51 26.84243 106.32542 37234 ft 559 kts 133°
2026-05-08 03:52 26.79541 106.39491 37229 ft 559 kts 132°
2026-05-08 03:52 26.74837 106.46434 37239 ft 558 kts 132°
2026-05-08 03:53 26.70173 106.53307 37249 ft 558 kts 132°
2026-05-08 03:53 26.65478 106.60214 37253 ft 558 kts 133°
2026-05-08 03:54 26.60773 106.67120 37263 ft 558 kts 133°
2026-05-08 03:54 26.56063 106.74025 37266 ft 559 kts 133°
2026-05-08 03:55 26.51144 106.80700 37268 ft 553 kts 140°
2026-05-08 03:55 26.45754 106.86798 37264 ft 551 kts 141°
2026-05-08 03:56 26.40320 106.92747 37230 ft 549 kts 141°
2026-05-08 03:56 26.34862 106.98692 37238 ft 548 kts 141°
2026-05-08 03:57 26.29424 107.04635 37239 ft 548 kts 141°
2026-05-08 03:57 26.23989 107.10612 37226 ft 548 kts 141°
2026-05-08 03:58 26.18562 107.16577 37232 ft 549 kts 141°
2026-05-08 03:58 26.13125 107.22542 37233 ft 548 kts 141°
2026-05-08 03:59 26.07716 107.28464 37227 ft 547 kts 141°
2026-05-08 03:59 26.02289 107.34398 37216 ft 546 kts 141°
2026-05-08 04:00 25.96852 107.40334 37211 ft 546 kts 141°
2026-05-08 04:00 25.91462 107.46213 37218 ft 546 kts 141°
2026-05-08 04:01 25.86027 107.52130 37208 ft 547 kts 141°
2026-05-08 04:01 25.80595 107.58036 37207 ft 546 kts 141°
2026-05-08 04:02 25.75163 107.63939 37180 ft 546 kts 141°
2026-05-08 04:02 25.69739 107.69828 37192 ft 545 kts 141°
2026-05-08 04:03 25.64344 107.75731 37189 ft 545 kts 140°
2026-05-08 04:03 25.56260 107.84585 37177 ft 545 kts 141°
2026-05-08 04:04 25.50881 107.90432 37168 ft 544 kts 142°
2026-05-08 04:04 25.44754 107.95102 37164 ft 527 kts 161°
2026-05-08 04:05 25.41361 107.96512 37154 ft 516 kts 171°
2026-05-08 04:05 25.37872 107.97297 37161 ft 508 kts 178°
2026-05-08 04:05 25.30874 107.98258 37145 ft 505 kts 181°
2026-05-08 04:06 25.23876 107.99030 37140 ft 505 kts 181°
2026-05-08 04:06 25.16875 107.99838 37132 ft 505 kts 180°
2026-05-08 04:07 25.09919 108.00674 37130 ft 506 kts 180°
2026-05-08 04:07 25.02909 108.01530 37125 ft 506 kts 180°
2026-05-08 04:08 24.95901 108.02382 37099 ft 506 kts 180°
2026-05-08 04:08 24.88907 108.03229 37104 ft 506 kts 180°
2026-05-08 04:09 24.81900 108.04076 37084 ft 506 kts 179°
2026-05-08 04:09 24.74900 108.04922 37088 ft 506 kts 179°
2026-05-08 04:10 24.67899 108.05771 37095 ft 506 kts 179°
2026-05-08 04:10 24.60953 108.06615 37085 ft 506 kts 179°
2026-05-08 04:11 24.53957 108.07463 37090 ft 506 kts 180°
2026-05-08 04:11 24.46952 108.08313 37090 ft 506 kts 179°
2026-05-08 04:12 24.39947 108.09163 37086 ft 506 kts 179°
2026-05-08 04:12 24.32953 108.10010 37085 ft 506 kts 179°
2026-05-08 04:13 24.25958 108.10860 37080 ft 506 kts 179°
2026-05-08 04:13 24.19005 108.11703 37080 ft 506 kts 179°
2026-05-08 04:14 24.12009 108.12552 37077 ft 506 kts 179°
2026-05-08 04:14 24.05002 108.13397 37077 ft 506 kts 179°
2026-05-08 04:15 23.98006 108.14244 37076 ft 506 kts 179°
2026-05-08 04:15 23.91031 108.15447 37062 ft 513 kts 169°
2026-05-08 04:16 23.84495 108.18768 37073 ft 527 kts 149°
2026-05-08 04:16 23.81678 108.21372 37067 ft 535 kts 138°
2026-05-08 04:16 23.79324 108.24543 37073 ft 541 kts 126°
2026-05-08 04:17 23.77536 108.28182 37070 ft 547 kts 115°
2026-05-08 04:17 23.76407 108.32102 37066 ft 551 kts 103°
2026-05-08 04:17 23.75959 108.36263 37070 ft 554 kts 91°
2026-05-08 04:17 23.76233 108.40448 37076 ft 554 kts 80°
2026-05-08 04:18 23.77223 108.44517 37070 ft 553 kts 68°
2026-05-08 04:18 23.78547 108.48461 37074 ft 555 kts 73°
2026-05-08 04:18 23.79651 108.56780 37082 ft 555 kts 91°
2026-05-08 04:19 23.79396 108.65199 37071 ft 555 kts 94°
2026-05-08 04:19 23.78968 108.72182 37071 ft 555 kts 95°
2026-05-08 04:20 23.78418 108.80596 37075 ft 555 kts 95°
2026-05-08 04:20 23.77890 108.89017 37067 ft 556 kts 95°
2026-05-08 04:21 23.77380 108.97436 37070 ft 556 kts 95°
2026-05-08 04:21 23.76870 109.05852 37057 ft 556 kts 95°
2026-05-08 04:22 23.76262 109.14209 37062 ft 555 kts 100°
2026-05-08 04:22 23.74796 109.22478 37059 ft 555 kts 103°
2026-05-08 04:23 23.73146 109.30702 37053 ft 554 kts 104°
2026-05-08 04:23 23.71464 109.38912 37052 ft 555 kts 104°
2026-05-08 04:24 23.69787 109.47130 37049 ft 555 kts 104°
2026-05-08 04:24 23.68114 109.55357 37046 ft 555 kts 104°
2026-05-08 04:25 23.66443 109.63576 37041 ft 555 kts 104°
2026-05-08 04:25 23.64766 109.71756 37042 ft 556 kts 104°
2026-05-08 04:26 23.63062 109.79971 37044 ft 555 kts 104°
2026-05-08 04:26 23.61348 109.88213 37041 ft 556 kts 104°
2026-05-08 04:27 23.59637 109.96449 37045 ft 556 kts 104°
2026-05-08 04:27 23.57926 110.04671 37042 ft 556 kts 104°
2026-05-08 04:28 23.56205 110.12913 37045 ft 557 kts 104°
2026-05-08 04:28 23.54493 110.21089 37037 ft 557 kts 104°
2026-05-08 04:29 23.52765 110.29311 37036 ft 557 kts 104°
2026-05-08 04:29 23.51033 110.37544 37032 ft 557 kts 104°
2026-05-08 04:30 23.49347 110.45784 37032 ft 557 kts 103°
2026-05-08 04:30 23.47681 110.54027 37031 ft 557 kts 103°
2026-05-08 04:31 23.46009 110.62274 37033 ft 557 kts 103°
2026-05-08 04:31 23.44326 110.70510 37031 ft 557 kts 103°
2026-05-08 04:32 23.42622 110.78747 37029 ft 557 kts 104°
2026-05-08 04:32 23.40884 110.86922 37031 ft 557 kts 104°
2026-05-08 04:33 23.39137 110.95132 37027 ft 557 kts 104°
2026-05-08 04:33 23.37390 111.03355 37027 ft 557 kts 104°
2026-05-08 04:34 23.35644 111.11567 37031 ft 557 kts 104°
2026-05-08 04:34 23.33913 111.19776 37026 ft 557 kts 103°
2026-05-08 04:35 23.32233 111.28028 37023 ft 558 kts 103°
2026-05-08 04:35 23.30560 111.36270 37025 ft 558 kts 103°
2026-05-08 04:36 23.28873 111.44503 37021 ft 557 kts 103°
2026-05-08 04:36 23.27188 111.52674 37022 ft 558 kts 103°
2026-05-08 04:37 23.25466 111.60907 37022 ft 558 kts 103°
2026-05-08 04:37 23.23718 111.69123 37020 ft 558 kts 104°
2026-05-08 04:38 23.21968 111.77336 37020 ft 558 kts 104°
2026-05-08 04:38 23.20222 111.85553 37018 ft 557 kts 103°
2026-05-08 04:39 23.18515 111.93764 37016 ft 556 kts 103°
2026-05-08 04:39 23.16816 112.01964 37013 ft 556 kts 103°
2026-05-08 04:40 23.15109 112.10177 37012 ft 557 kts 103°
2026-05-08 04:40 23.13387 112.18380 37012 ft 557 kts 103°
2026-05-08 04:41 23.11660 112.26586 37006 ft 557 kts 103°
2026-05-08 04:41 23.09943 112.34738 37001 ft 557 kts 103°
2026-05-08 04:42 23.08213 112.42939 37002 ft 557 kts 103°
2026-05-08 04:42 23.06875 112.51221 37001 ft 557 kts 95°
2026-05-08 04:43 23.06218 112.59613 36993 ft 557 kts 93°
2026-05-08 04:43 23.05672 112.68010 36995 ft 557 kts 93°
2026-05-08 04:44 23.05126 112.76405 36990 ft 557 kts 93°
2026-05-08 04:44 23.04559 112.84806 36985 ft 558 kts 93°
2026-05-08 04:45 23.03983 112.93151 36984 ft 558 kts 93°
2026-05-08 04:45 23.03395 113.01553 36985 ft 558 kts 93°
2026-05-08 04:46 23.02359 113.09890 36986 ft 558 kts 106°
2026-05-08 04:46 23.01019 113.13837 36981 ft 557 kts 117°
2026-05-08 04:46 22.99054 113.17438 36867 ft 553 kts 129°
2026-05-08 04:47 22.96514 113.20540 36620 ft 548 kts 141°
2026-05-08 04:47 22.93499 113.23029 36371 ft 542 kts 153°
2026-05-08 04:47 22.90150 113.24833 36126 ft 535 kts 163°
2026-05-08 04:47 22.86602 113.25926 35877 ft 526 kts 174°
2026-05-08 04:48 22.82989 113.26430 35448 ft 523 kts 177°
2026-05-08 04:48 22.79395 113.27196 34757 ft 528 kts 169°
2026-05-08 04:48 22.75894 113.28227 33973 ft 529 kts 168°
2026-05-08 04:48 22.72360 113.29350 33099 ft 530 kts 167°
2026-05-08 04:49 22.68825 113.30531 32284 ft 532 kts 166°
2026-05-08 04:49 22.65287 113.31746 31454 ft 534 kts 165°
2026-05-08 04:49 22.61746 113.32978 30608 ft 536 kts 165°
2026-05-08 04:49 22.58190 113.34223 29625 ft 538 kts 164°
2026-05-08 04:50 22.54648 113.35460 28899 ft 531 kts 164°
2026-05-08 04:50 22.51144 113.36678 28221 ft 526 kts 164°
2026-05-08 04:50 22.47670 113.37881 27567 ft 521 kts 164°
2026-05-08 04:50 22.44232 113.39068 26926 ft 516 kts 163°
2026-05-08 04:51 22.40815 113.40246 26289 ft 511 kts 163°
2026-05-08 04:51 22.37442 113.41408 25652 ft 507 kts 163°
2026-05-08 04:51 22.34091 113.42561 25022 ft 502 kts 163°
2026-05-08 04:51 22.30778 113.43701 24384 ft 499 kts 163°
2026-05-08 04:52 22.27482 113.44833 23752 ft 494 kts 163°
2026-05-08 04:52 22.24226 113.45953 23115 ft 488 kts 163°
2026-05-08 04:52 22.21005 113.47065 22417 ft 483 kts 163°
2026-05-08 04:52 22.17843 113.48212 21779 ft 476 kts 162°
2026-05-08 04:53 22.14733 113.49366 21168 ft 468 kts 162°
2026-05-08 04:53 22.11680 113.50496 20644 ft 459 kts 162°
2026-05-08 04:53 22.08756 113.51574 20519 ft 441 kts 162°
2026-05-08 04:53 22.05959 113.52602 20398 ft 423 kts 162°
2026-05-08 04:54 22.04131 113.53273 20285 ft 413 kts 162°
2026-05-08 04:54 22.01638 113.54187 20121 ft 399 kts 163°
2026-05-08 04:54 21.99047 113.55136 19871 ft 389 kts 163°
2026-05-08 04:54 21.96507 113.56126 19370 ft 388 kts 159°
2026-05-08 04:55 21.94035 113.57282 18913 ft 386 kts 158°
2026-05-08 04:55 21.91587 113.58452 18477 ft 383 kts 158°
2026-05-08 04:55 21.89143 113.59605 18016 ft 381 kts 158°
2026-05-08 04:55 21.86728 113.60731 17558 ft 377 kts 159°
2026-05-08 04:56 21.84331 113.61842 17147 ft 373 kts 159°
2026-05-08 04:56 21.81962 113.62937 16737 ft 369 kts 159°
2026-05-08 04:56 21.79611 113.64020 16312 ft 365 kts 159°
2026-05-08 04:56 21.77314 113.65076 15900 ft 362 kts 159°
2026-05-08 04:57 21.75010 113.66135 15491 ft 358 kts 159°
2026-05-08 04:57 21.72723 113.67185 15085 ft 355 kts 159°
2026-05-08 04:57 21.70457 113.68226 14679 ft 352 kts 159°
2026-05-08 04:57 21.68301 113.69459 14262 ft 352 kts 146°
2026-05-08 04:58 21.66634 113.71369 13849 ft 352 kts 122°
2026-05-08 04:58 21.65785 113.73820 13412 ft 349 kts 98°
2026-05-08 04:58 21.65863 113.76369 13063 ft 350 kts 76°
2026-05-08 04:58 21.66821 113.78772 12665 ft 350 kts 53°
2026-05-08 04:59 21.68536 113.80568 12208 ft 343 kts 31°
2026-05-08 04:59 21.70607 113.81822 11794 ft 340 kts 26°
2026-05-08 04:59 21.72664 113.83035 11391 ft 333 kts 27°
2026-05-08 04:59 21.74673 113.84233 10995 ft 327 kts 27°
2026-05-08 05:00 21.76651 113.85397 10600 ft 321 kts 27°
2026-05-08 05:00 21.78600 113.86531 10218 ft 316 kts 27°
2026-05-08 05:00 21.80524 113.87644 9829 ft 311 kts 27°
2026-05-08 05:00 21.82423 113.88738 9406 ft 306 kts 27°
2026-05-08 05:01 21.84349 113.89576 8983 ft 300 kts 11°
2026-05-08 05:01 21.86386 113.89557 8697 ft 290 kts 345°
2026-05-08 05:01 21.88265 113.88808 8425 ft 288 kts 335°
2026-05-08 05:01 21.90079 113.87898 8111 ft 287 kts 334°
2026-05-08 05:02 21.91880 113.86981 7798 ft 286 kts 334°
2026-05-08 05:02 21.93681 113.86071 7483 ft 285 kts 334°
2026-05-08 05:02 21.95473 113.85172 7186 ft 284 kts 334°
2026-05-08 05:02 21.97263 113.84277 6873 ft 282 kts 334°
2026-05-08 05:03 21.99047 113.83387 6564 ft 281 kts 335°
2026-05-08 05:03 22.00815 113.82506 6252 ft 280 kts 335°
2026-05-08 05:03 22.01984 113.81924 6049 ft 279 kts 335°
2026-05-08 05:03 22.03173 113.81331 5841 ft 278 kts 335°
2026-05-08 05:04 22.06081 113.79884 5340 ft 276 kts 335°
2026-05-08 05:04 22.07820 113.79018 5041 ft 275 kts 335°
2026-05-08 05:04 22.09552 113.78154 4731 ft 274 kts 335°
2026-05-08 05:04 22.11252 113.77308 4569 ft 262 kts 335°
2026-05-08 05:05 22.12864 113.76510 4453 ft 248 kts 335°
2026-05-08 05:05 22.14389 113.75747 4341 ft 235 kts 335°
2026-05-08 05:05 22.15830 113.75026 4234 ft 221 kts 335°
2026-05-08 05:05 22.17179 113.74352 4155 ft 208 kts 334°
2026-05-08 05:06 22.18469 113.73707 4106 ft 206 kts 335°
2026-05-08 05:06 22.19351 113.73266 4085 ft 207 kts 335°
2026-05-08 05:06 22.21068 113.72408 3973 ft 200 kts 335°
2026-05-08 05:06 22.22331 113.71818 3660 ft 197 kts 340°
2026-05-08 05:07 22.23249 113.71666 3323 ft 201 kts
2026-05-08 05:07 22.24526 113.72221 2839 ft 198 kts 36°
2026-05-08 05:07 22.25552 113.73151 2646 ft 188 kts 40°
2026-05-08 05:07 22.26506 113.74075 2573 ft 190 kts 39°
2026-05-08 05:08 22.27527 113.75071 2473 ft 202 kts 42°
2026-05-08 05:08 22.28321 113.76228 2258 ft 189 kts 62°
2026-05-08 05:08 22.28731 113.77520 2015 ft 174 kts 73°
2026-05-08 05:08 22.29086 113.78724 1802 ft 165 kts 67°
2026-05-08 05:09 22.29472 113.79866 1584 ft 159 kts 68°
2026-05-08 05:09 22.29820 113.80960 1377 ft 149 kts 68°
2026-05-08 05:09 22.30155 113.82000 1199 ft 146 kts 69°
2026-05-08 05:09 22.30488 113.83038 1008 ft 147 kts 68°
2026-05-08 05:10 22.30822 113.84078 871 ft 149 kts 68°
2026-05-08 05:10 22.31503 113.86189 450 ft 148 kts 70°
2026-05-08 05:10 22.31833 113.87231 263 ft 149 kts 70°
2026-05-08 05:11 22.32175 113.88296 88 ft 151 kts 70°
2026-05-08 05:11 22.32503 113.89305 38 ft 121 kts 70°
2026-05-08 05:11 22.32710 113.89939 38 ft 62 kts 71°
2026-05-08 05:11 22.32813 113.90303 38 ft 34 kts 82°
2026-05-08 05:12 22.32804 113.90520 39 ft 24 kts 100°
2026-05-08 05:12 22.32782 113.90693 38 ft 22 kts 86°
2026-05-08 05:12 22.32822 113.90854 38 ft 23 kts 70°
2026-05-08 05:12 22.32879 113.91029 38 ft 26 kts 71°
2026-05-08 05:13 22.32942 113.91226 38 ft 29 kts 70°
2026-05-08 05:13 22.33011 113.91442 38 ft 32 kts 71°
2026-05-08 05:13 22.33062 113.91601 38 ft 20 kts 70°
2026-05-08 05:13 22.33107 113.91742 38 ft 12 kts 72°
2026-05-08 05:14 22.33138 113.91840 38 ft 16 kts 70°
2026-05-08 05:14 22.33178 113.91966 38 ft 19 kts 71°
2026-05-08 05:14 22.33204 113.92085 38 ft 12 kts 99°
2026-05-08 05:14 22.33139 113.92143 38 ft 14 kts 158°
2026-05-08 05:15 22.33029 113.92184 38 ft 20 kts 161°
2026-05-08 05:15 22.32889 113.92236 38 ft 23 kts 161°
2026-05-08 05:15 22.32730 113.92295 38 ft 26 kts 161°
2026-05-08 05:15 22.32551 113.92362 38 ft 29 kts 161°
2026-05-08 05:16 22.32357 113.92434 38 ft 29 kts 160°
2026-05-08 05:16 22.32203 113.92492 38 ft 14 kts 155°
2026-05-08 05:16 22.32171 113.92590 38 ft 16 kts 76°
2026-05-08 05:16 22.32174 113.92679 38 ft 10 kts 126°
2026-05-08 05:17 22.32105 113.92719 40 ft 12 kts 160°
2026-05-08 05:17 22.32016 113.92752 40 ft 15 kts 161°
2026-05-08 05:17 22.31900 113.92797 38 ft 20 kts 159°
2026-05-08 05:17 22.31804 113.92817 38 ft 12 kts 203°
2026-05-08 05:18 22.31760 113.92737 38 ft 14 kts 249°
2026-05-08 05:18 22.31724 113.92626 38 ft 17 kts 251°
2026-05-08 05:18 22.31687 113.92510 38 ft 11 kts 247°
2026-05-08 05:18 22.31629 113.92488 38 ft 10 kts 155°
2026-05-08 05:19 22.31580 113.92515 38 ft 7 kts 179°
2026-05-08 05:19 22.31540 113.92503 38 ft 4 kts 201°
2026-05-08 05:19 22.31527 113.92495 38 ft 2 kts 205°
2026-05-08 05:19 22.31516 113.92490 38 ft 0 kts 205°
2026-05-08 05:20 22.31510 113.92487 38 ft 1 kts 205°